     2.10           OBSERVATION DATA    G (GPS)             RINEX VERSION / TYPE
teqc 2006Apr13 CORS-ADM Account 20060626 14:04:05UTC        PGM / RUN BY / DATE
Solaris 5.9|UltraSparc IIi|cc -xarch=v9 SC5.5|=+-|*Sparc    COMMENT
teqc 2006Apr13 CORS/NGS/NOAA 20060626 14:04:03UTC           COMMENT
BIT 2 OF LLI FLAGS DATA COLLECTED UNDER A/S CONDITION       COMMENT
jama                                                        MARKER NAME
Frank E Marion NOAA, National Geodetic Survey               OBSERVER / AGENCY
ZR220022405 ASHTECH UZ-12 CK00                              REC # / TYPE / VERS
114 AOAD/M_TA_NGS SNOW                                      ANT # / TYPE
  1388060.4401 -5909150.8065  1951964.1158                  APPROX POSITION XYZ
        0.0000        0.0000        0.0000                  ANTENNA: DELTA H/E/N
     1     1                                                WAVELENGTH FACT L1/2
     7    C1    L1    L2    P1    P2    D1    D2            # / TYPES OF OBSERV
    30.0000                                                 INTERVAL
SNR is mapped to RINEX snr flag value [0-9]                 COMMENT
L1 & L2: min(max(int(snr_dBHz/6), 0), 9)                    COMMENT
pseudorange smoothing corrections not applied               COMMENT
Forced Modulo Decimation to 30 seconds                      COMMENT
  2006     6    26    13     0    0.0000000     GPS         TIME OF FIRST OBS
                                                            END OF HEADER
 06  6 26 13  0  0.0000000  0  8G29G 9G18G10G 2G 6G26G21
  20430654.1004  -22375502.21748 -17392736.05848  20430654.1464   20430655.4454
     -1616.9784      -1259.9774
  24036302.9044   -8883101.86847  -6914206.75846  24036303.5104   24036307.3284
      2906.9204       2265.1284
  23852209.4714   -8235406.58947  -6413222.04046  23852209.1544   23852210.1474
      1188.9984        926.4894
  23266238.7224   -9878759.12147  -7647434.30646  23266237.2544   23266240.4284
     -1973.4744      -1537.7644
  23076639.0104  -12393021.12047  -9614770.61947  23076639.7134   23076638.7534
     -1949.8214      -1519.3304
  21196739.5554  -21682415.38848 -16850089.43547  21196739.1144   21196741.0924
       947.9374        738.6504
  19889971.9814  -30019542.11449 -23338598.09348  19889972.2264   19889974.0334
      -537.2624       -418.6464
  24376653.3254   -4940307.37946  -3810491.29146  24376652.1574   24376654.3204
      2814.3674       2193.0144
 06  6 26 13  0 30.0000000  0  8G29G 9G18G10G 2G 6G26G21
  20439932.5584  -22326742.46948 -17354741.45948  20439932.6994   20439934.0074
     -1633.1334      -1272.5774
  24019693.0084   -8970386.07647  -6982220.40746  24019694.3124   24019695.9354
      2911.7354       2268.8874
  23845431.7924   -8271019.14847  -6440972.08746  23845432.0724   23845435.2944
      1185.2334        923.5584
  23277495.7674   -9819598.40947  -7601335.10146  23277494.5874   23277498.0284
     -1970.1504      -1535.1684
  23087797.2614  -12334380.13247  -9569076.36247  23087797.9914   23087797.3014
     -1959.3984      -1526.7934
  21191377.4104  -21710592.53048 -16872045.66547  21191377.4664   21191379.4784
       930.8024        725.3024
  19893102.8464  -30003090.66049 -23325778.78648  19893102.8964   19893104.7304
      -559.1204       -435.6814
  24360576.1764   -5024793.34146  -3876324.52846  24360576.5254   24360578.9484
      2818.8324       2196.5004
 06  6 26 13  1  0.0000000  0  8G29G 9G18G10G 2G 6G26G21
  20449305.8364  -22277486.64248 -17316360.30448  20449305.7194   20449307.3644
     -1649.9064      -1285.6384
  24003061.2274   -9057795.36847  -7050331.54046  24003060.1814   24003062.2444
      2916.0784       2272.2684
  23838681.1954   -8306501.97847  -6468621.05646  23838679.8384   23838681.9204
      1180.5994        919.9494
  23288735.8164   -9760528.76747  -7555306.84946  23288734.9654   23288738.0024
     -1967.4504      -1533.0734
  23099012.6674  -12275445.27547  -9523153.10247  23099013.0944   23099011.7294
     -1969.1634      -1534.4094
  21186115.5734  -21738244.14348 -16893592.38947  21186115.5894   21186118.1364
       913.1494        711.5334
  19896359.3114  -29985978.90249 -23312444.94748  19896359.3984   19896360.8844
      -581.1324       -452.8204
  24344474.4174   -5109403.10846  -3942254.15346  24344475.4224   24344476.4624
      2822.8524       2199.6224
 06  6 26 13  1 30.0000000  0  8G29G 9G18G10G 2G 6G26G21
  20458771.7604  -22227740.02548 -17277596.72048  20458772.1304   20458773.5954
     -1667.4694      -1299.3284
  23986402.0394   -9145330.41247  -7118540.66446  23986402.5534   23986403.8634
      2919.0204       2274.5564
  23831951.2924   -8341859.33447  -6496172.25046  23831951.7514   23831952.9214
      1175.7494        916.1614
  23299959.5834   -9701553.87547  -7509352.41146  23299959.0784   23299959.3624
     -1965.2434      -1531.3764
  23110282.4574  -12216219.53747  -9477003.18747  23110282.6944   23110282.9204
     -1980.1404      -1542.9594
  21180953.4254  -21765372.76948 -16914731.58447  21180952.6504   21180955.4274
       894.6004        697.0804
  19899740.3974  -29968210.88349 -23298599.73948  19899740.3804   19899742.0504
      -604.1904       -470.8044
  24328350.1624   -5194139.14046  -4008282.21046  24328351.1784   24328351.5414
      2825.4984       2201.6914
 06  6 26 13  2  0.0000000  0  8G29G 9G18G10G 2G 6G26G21
  20468331.5674  -22177506.84348 -17238453.99348  20468331.1504   20468332.1414
     -1682.0384      -1310.6774
  23969721.3754   -9232990.44547  -7186847.15746  23969720.3074   23969724.1694
      2924.1314       2278.5414
  23825247.4294   -8377093.85447  -6523627.72846  23825247.0734   23825249.0354
      1172.6824        913.7824
  23311163.2774   -9642675.89147  -7463473.47246  23311163.7064   23311165.2324
     -1960.6004      -1527.7524
  23121608.9904  -12156705.33447  -9430628.50546  23121607.7574   23121608.7084
     -1988.1464      -1549.1844
  21175889.5574  -21791979.77648 -16935464.33247  21175889.9284   21175892.2274
       878.5754        684.6064
  19903245.7424  -29949790.04249 -23284245.84348  19903245.9624   19903247.2234
      -624.5314       -486.6424
  24312202.0694   -5279001.94646  -4074409.09946  24312201.8294   24312202.2164
      2831.6464       2206.4794
 06  6 26 13  2 30.0000000  0  8G29G 9G18G10G 2G 6G26G21
  20477983.3644  -22126785.13448 -17198930.59348  20477983.2854   20477984.7784
     -1698.3814      -1323.4204
  23953019.1894   -9320768.19747  -7255245.37346  23953017.3544   23953019.6574
      2928.1964       2281.7124
  23818566.3954   -8412202.29147  -6550984.95146  23818568.5274   23818567.3234
      1168.5644        910.5654
  23322349.5344   -9583891.06747  -7417667.14546  23322349.7314   23322351.7734
     -1957.3704      -1525.2354
  23132989.1834  -12096897.79347  -9384025.23647  23132989.4384   23132988.2144
     -1998.1984      -1557.0424
  21170926.7744  -21818060.34048 -16955786.86147  21170926.9594   21170928.8654
       861.0444        670.9354
  19906876.0854  -29930713.07549 -23269380.67748  19906876.1054   19906877.3964
      -646.4704       -503.7454
  24296028.9184   -5363986.05946  -4140630.46946  24296029.3534   24296032.5694
      2835.0074       2209.0854
 06  6 26 13  3  0.0000000  0  8G29G 9G18G10G 2G 6G26G21
  20487727.1384  -22075581.28048 -17159031.49048  20487727.2624   20487728.4014
     -1716.6364      -1337.6364
  23936291.4424   -9408665.30147  -7323736.62446  23936291.4614   23936293.9504
      2930.1464       2283.2264
  23811908.2574   -8447190.34347  -6578248.37446  23811908.1024   23811911.2894
      1162.2704        905.6564
  23333515.8134   -9525203.98747  -7371936.99946  23333517.0684   23333520.0884
     -1956.4294      -1524.4854
  23144424.6074  -12036800.91047  -9337196.49446  23144424.2234   23144425.1134
     -2009.9774      -1566.2344
  21166063.7264  -21843617.43048 -16975701.48547  21166063.7124   21166066.0934
       841.3194        655.5804
  19910630.0954  -29910985.40549 -23254008.46748  19910630.4334   19910631.5074
      -670.2744       -522.2964
  24279835.1064   -5449094.47947  -4206948.65446  24279833.2774   24279836.0054
      2837.3204       2210.8994
 06  6 26 13  3 30.0000000  0  8G29G 9G18G10G 2G 6G26G21
  20497562.6754  -22023894.46548 -17118756.05948  20497562.4084   20497564.0694
     -1730.5414      -1348.4794
  23919543.2444   -9496675.84547  -7392316.24346  23919542.9154   23919547.7234
      2935.8164       2287.6424
  23805274.6084   -8482055.21147  -6605415.80146  23805272.8244   23805275.7844
      1160.7074        904.4374
  23344666.4804   -9466611.35747  -7326280.43646  23344665.9514   23344670.5514
     -1951.2514      -1520.4584
  23155916.7054  -11976411.46847  -9290139.82046  23155916.1944   23155917.5634
     -2017.4194      -1572.0274
  21161300.5524  -21868647.83648 -16995205.71447  21161300.3174   21161302.5014
       825.9894        643.6284
  19914508.5364  -29890604.96949 -23238127.61548  19914508.7434   19914509.6644
      -689.7964       -537.5104
  24263615.6934   -5534322.55246  -4273360.13546  24263614.0304   24263616.2364
      2843.1654       2215.4594
 06  6 26 13  4  0.0000000  0  8G29G 9G18G10G 2G 6G26G21
  20507489.8954  -21971727.04848 -17078106.12648  20507490.1984   20507491.2774
     -1746.2444      -1360.7004
  23902774.8964   -9584797.60047  -7460982.50446  23902774.7504   23902776.8004
      2939.5314       2290.5504
  23798662.0504   -8516797.92247  -6632488.03846  23798662.1604   23798664.0444
      1156.7804        901.3824
  23355799.2914   -9408113.76947  -7280697.91246  23355797.1764   23355801.2954
     -1947.7784      -1517.7314
  23167464.6204  -11915729.74947  -9242855.38446  23167464.8284   23167464.0634
     -2026.9694      -1579.4594
  21156637.6864  -21893150.72548 -17014298.88647  21156637.4114   21156639.9464
       808.5304        630.0334
  19918510.8674  -29869573.24249 -23221739.25748  19918510.8474   19918512.0444
      -711.3324       -554.2794
  24247374.2564   -5619669.19346  -4339864.00446  24247375.6744   24247376.2434
      2847.4974       2218.8214
 06  6 26 13  4 30.0000000  0  8G29G 9G18G10G 2G 6G26G21
  20517508.2024  -21919080.29348 -17037082.69248  20517508.1954   20517509.5404
     -1763.1924      -1373.9074
  23885986.1174   -9673026.34247  -7529732.14446  23885985.5724   23885988.0574
      2942.3954       2292.7754
  23792073.3574   -8551418.70147  -6659465.25646  23792073.5014   23792076.1094
      1151.8234        897.5234
  23366911.2304   -9349710.35847  -7235188.77846  23366911.5184   23366915.5584
     -1945.6494      -1516.0904
  23179067.0094  -11854754.42547  -9195342.16846  23179066.7714   23179067.1454
     -2037.8384      -1587.9254
  21152075.7224  -21917124.30148 -17032979.60447  21152075.6394   21152077.8034
       789.9764        615.5734
  19922636.9104  -29847890.22349 -23204843.39948  19922637.0204   19922638.3084
      -733.8564       -571.8274
  24231111.5064   -5705132.16347  -4406458.47446  24231111.0464   24231113.5054
      2850.5704       2221.2234
 06  6 26 13  5  0.0000000  0  8G29G 9G18G10G 2G 6G26G21
  20527615.9994  -21865963.38448 -16995692.90248  20527616.1364   20527617.5774
     -1777.9854      -1385.4304
  23869174.9564   -9761366.23347  -7598568.40146  23869174.5534   23869178.0804
      2947.0254       2296.3804
  23785508.5494   -8585925.34647  -6686353.57146  23785508.0534   23785509.6184
      1148.6444        895.0484
  23378006.6924   -9291408.38647  -7189758.70246  23378006.9824   23378009.0214
     -1941.3844      -1512.7754
  23190725.4724  -11793492.44747  -9147605.58447  23190725.7244   23190725.4614
     -2046.4884      -1594.6494
  21147613.3484  -21940574.89848 -17051252.81147  21147613.4464   21147615.2124
       773.3574        602.6234
  19926885.2564  -29825564.51649 -23187446.74748  19926885.4264   19926886.6204
      -754.4184       -587.8464
  24214825.9434   -5790717.41347  -4473148.27146  24214826.0364   24214825.8884
      2855.1434       2224.7844
 06  6 26 13  5 30.0000000  0  8G29G 9G18G10G 2G 6G26G21
  20537814.0764  -21812372.03848 -16953933.41848  20537814.3064   20537815.6144
     -1793.6394      -1397.6424
  23852343.9054   -9849807.80447  -7667483.86246  23852344.2114   23852347.7794
      2950.4504       2299.0514
  23778965.4174   -8620312.15047  -6713148.47146  23778963.0554   23778966.2354
      1144.9354        892.1654
  23389083.2764   -9233201.18347  -7144402.45446  23389083.0184   23389086.8244
     -1937.9034      -1510.0674
  23202438.3154  -11731937.24547  -9099640.52146  23202437.9724   23202438.5454
     -2056.0734      -1602.1144
  21143251.7794  -21963495.23548 -17069112.82047  21143252.2324   21143253.5404
       755.8504        588.9684
  19931256.8544  -29802590.61449 -23169545.00548  19931257.1224   19931258.5984
      -775.9424       -604.6384
  24198517.7464   -5876416.56746  -4539926.82846  24198516.4774   24198517.9854
      2859.1634       2227.9224
 06  6 26 13  6  0.0000000  0  8G29G 9G18G10G 2G 6G26G21
  20548101.3384  -21758313.58248 -16911809.95848  20548101.3104   20548102.3014
     -1809.4444      -1409.9564
  23835494.5164   -9938353.79047  -7736480.69246  23835494.3654   23835497.0854
      2953.3914       2301.3464
  23772442.1114   -8654585.01747  -6739854.60946  23772442.2414   23772443.8884
      1140.8434        888.9824
  23400140.1884   -9175094.12147  -7099124.25346  23400140.3964   23400145.1214
     -1934.7814      -1507.6274
  23214206.6414  -11670093.67747  -9051450.75046  23214206.0934   23214206.2824
     -2065.9374      -1609.8034
  21138990.3754  -21985889.66948 -17086563.03647  21138990.3244   21138991.8604
       737.9734        575.0404
  19935750.8474  -29778974.69249 -23151142.98748  19935751.0854   19935752.1414
      -797.6954       -621.5804
  24182187.7674   -5962233.40546  -4606797.08746  24182185.7384   24182187.7784
      2862.8464       2230.8004
 06  6 26 13  6 30.0000000  0  8G29G 9G18G10G 2G 6G26G21
  20558477.5164  -21703786.37148 -16869321.23948  20558477.3854   20558478.9164
     -1824.9634      -1422.0404
  23818626.7014  -10026997.27347  -7805553.48246  23818625.9974   23818629.6004
      2956.8224       2304.0224
  23765943.1524   -8688740.93547  -6766469.62246  23765941.3514   23765945.5234
      1136.9604        885.9464
  23411180.1004   -9117083.51147  -7053921.20546  23411178.3614   23411182.3264
     -1931.8014      -1505.2964
  23226032.1824  -11607957.75447  -9003033.16946  23226031.5654   23226031.8994
     -2075.7144      -1617.4394
  21134829.5904  -22007753.79248 -17103600.02447  21134829.5704   21134831.5094
       720.3114        561.2854
  19940367.4414  -29754714.32749 -23132238.80748  19940367.8454   19940368.7904
      -818.8604       -638.0654
  24165835.1794   -6048162.88247  -4673755.08946  24165834.4814   24165838.0014
      2866.6604       2233.7614
 06  6 26 13  7  0.0000000  0  8G29G 9G18G10G 2G 6G26G21
  20568942.2904  -21648793.10648 -16826469.35648  20568942.2864   20568943.4644
     -1840.7674      -1434.3524
  23801740.4114  -10115735.70847  -7874700.26946  23801740.4234   23801743.1224
      2959.7094       2306.2654
  23759464.5244   -8722781.10847  -6792994.43246  23759464.6354   23759467.0004
      1132.6264        882.5634
  23422199.7804   -9059169.74047  -7008793.59146  23422199.4544   23422202.8114
     -1928.7304      -1502.9094
  23237910.6774  -11545529.86647  -8954388.08346  23237910.8534   23237910.4144
     -2085.5474      -1625.1034
  21130769.8124  -22029087.36748 -17120223.60547  21130769.8314   21130771.9354
       702.3514        547.2844
  19945106.3574  -29729811.38049 -23112833.91148  19945106.5974   19945107.6934
      -840.6144       -655.0224
  24149461.0554   -6134203.71846  -4740799.84646  24149463.0624   24149463.9984
      2869.8874       2236.2654
 06  6 26 13  7 30.0000000  0  8G29G 9G18G10G 2G 6G26G21
  20579494.4444  -21593339.54148 -16783258.79448  20579494.8484   20579496.1284
     -1856.0034      -1446.2334
  23784834.8074  -10204569.13747  -7943921.06146  23784835.6404   23784838.6204
      2962.6394       2308.5504
  23753007.7454   -8756709.80847  -6819432.36946  23753007.7504   23753011.9174
      1129.3684        880.0304
  23433202.9494   -9001356.20547  -6963744.09746  23433200.0464   23433204.7604
     -1925.2184      -1500.1594
  23249845.9114  -11482813.35447  -8905518.10346  23249846.3884   23249845.4914
     -2095.2574      -1632.6424
  21126810.8064  -22049893.14548 -17136435.90747  21126810.5994   21126813.0364
       684.7864        533.6184
  19949966.4874  -29704270.29649 -23092931.76848  19949966.9414   19949968.2944
      -861.8204       -671.5434
  24133068.2174   -6220357.55247  -4807932.72146  24133067.1134   24133069.7754
      2873.9424       2239.4384
 06  6 26 13  8  0.0000000  0  8G29G 9G18G10G 2G 6G26G21
  20590134.9764  -21537426.23848 -16739689.99848  20590134.7054   20590136.2154
     -1871.9784      -1458.6744
  23767915.8184  -10293493.27647  -8013212.53646  23767913.8604   23767916.4644
      2965.2494       2310.5854
  23746573.2574   -8790526.73347  -6845783.21146  23746573.0824   23746575.0934
      1124.6734        876.3614
  23444185.2604   -8943641.46047  -6918771.59446  23444184.4584   23444186.3394
     -1922.6684      -1498.1894
  23261835.9654  -11419806.45547  -8856421.84646  23261836.6644   23261835.8434
     -2105.5284      -1640.6824
  21122952.7104  -22070169.02348 -17152235.29747  21122952.3234   21122954.0934
       666.5164        519.3584
  19954948.2744  -29678091.09249 -23072532.39448  19954948.4484   19954949.7914
      -883.7664       -688.6514
  24116652.2284   -6306621.53947  -4875151.40046  24116651.5304   24116654.1044
      2876.9194       2241.7544
 06  6 26 13  8 30.0000000  0  8G29G 9G18G10G 2G 6G26G21
  20600861.9474  -21481056.10448 -16695765.23148  20600861.5234   20600863.0644
     -1887.5494      -1470.8094
  23750975.5824  -10382505.81947  -8082572.93646  23750975.8454   23750976.7954
      2967.4834       2312.3184
  23740159.8744   -8824232.72347  -6872047.61346  23740161.0834   23740161.8244
      1120.3434        872.9964
  23455147.8894   -8886026.11147  -6873876.53146  23455148.1374   23455152.5994
     -1920.0144      -1496.1294
  23273880.5704  -11356509.37947  -8807099.46946  23273879.7604   23273880.8394
     -2115.4514      -1648.4094
  21119195.1164  -22089914.77548 -17167621.60047  21119195.1134   21119197.1064
       648.2774        505.1524
  19960051.3344  -29651275.67349 -23051637.26748  19960051.4174   19960052.6314
      -905.3774       -705.4874
  24100215.5744   -6392994.63347  -4942455.04146  24100215.6214   24100217.9274
      2879.2074       2243.5334
 06  6 26 13  9  0.0000000  0  8G29G 9G18G10G 2G 6G26G21
  20611674.7984  -21424232.98748 -16651487.49148  20611674.9494   20611676.0794
     -1901.1574      -1481.4124
  23734020.9144  -10471605.58747  -8152001.28846  23734020.3194   23734022.8154
      2971.9014       2315.7674
  23733765.9294   -8857830.41247  -6898227.62546  23733766.6664   23733767.9324
      1118.7434        871.7544
  23466093.4804   -8828511.70647  -6829060.12646  23466091.1074   23466094.6334
     -1915.2364      -1492.4094
  23285981.0094  -11292923.80247  -8757552.30246  23285980.6504   23285980.8604
     -2123.7374      -1654.8604
  21115538.3624  -22109131.61948 -17182595.77647  21115538.0084   21115539.7844
       632.1204        492.5574
  19965274.6394  -29623826.85249 -23030248.58248  19965274.8544   19965275.8484
      -924.9284       -720.7174
  24083758.9154   -6479477.28547  -5009844.11246  24083758.6224   24083760.0344
      2885.1354       2248.1634
 06  6 26 13  9 30.0000000  0  8G29G 9G18G10G 2G 6G26G21
  20622573.3664  -21366958.11348 -16606857.72948  20622573.5234   20622575.1674
     -1916.1084      -1493.0784
  23717050.4784  -10560787.93047  -8221493.98146  23717049.9024   23717053.1344
      2974.6914       2317.9274
  23727392.9274   -8891319.57147  -6924323.06146  23727392.5974   23727394.7264
      1114.7524        868.6364
  23477019.5434   -8771096.96647  -6784321.37446  23477017.8994   23477019.6504
     -1911.5354      -1489.5164
  23298136.3574  -11229048.35547  -8707779.25546  23298136.2894   23298135.4394
     -2133.3744      -1662.3574
  21111981.8714  -22127817.65948 -17197156.32847  21111982.0114   21111984.4214
       614.5964        478.9024
  19970618.2974  -29595744.92349 -23008366.56548  19970618.8344   19970619.7734
      -946.0544       -737.1914
  24067281.7534   -6566066.31947  -5077316.09346  24067279.0234   24067283.4554
      2888.3024       2250.6244
 06  6 26 13 10  0.0000000  0  8G29G 9G18G10G 2G 6G26G21
  20633558.9504  -21309230.88548 -16561875.49348  20633558.6264   20633560.2484
     -1932.9794      -1506.2104
  23700062.6984  -10650047.88347  -8291047.15046  23700063.4204   23700066.6054
      2975.3594       2318.4524
  23721041.8284   -8924698.22747  -6950332.40646  23721040.7354   23721042.9614
      1109.6264        864.6444
  23487926.6784   -8713779.30747  -6739658.26646  23487924.9454   23487929.4234
     -1910.0894      -1488.4194
  23310345.2194  -11164880.87847  -8657778.66146  23310345.4654   23310346.4304
     -2145.1164      -1671.5174
  21108527.7834  -22145969.79248 -17211300.85847  21108528.1174   21108530.2354
       594.9044        463.5604
  19976082.6054  -29567028.96349 -22985990.50148  19976083.1144   19976084.1274
      -968.9544       -755.0244
  24050784.7234   -6652757.82947  -5144867.86346  24050783.4914   24050785.8384
      2890.2694       2252.1534
 06  6 26 13 10 30.0000000  0  8G29G 9G18G10G 2G 6G26G21
  20644628.6434  -21251059.10648 -16516546.85048  20644628.3864   20644629.7634
     -1947.7424      -1517.7204
  23683064.6354  -10739387.27247  -8360662.23646  23683062.3654   23683064.9654
      2978.3444       2320.7954
  23714709.2614   -8957972.60847  -6976260.49446  23714708.4864   23714712.1984
      1106.1864        861.9634
  23498814.6644   -8656563.90847  -6695074.82946  23498811.8854   23498816.9314
     -1906.6694      -1485.7244
  23322611.1364  -11100425.94647  -8607554.06646  23322610.9274   23322611.1964
     -2154.3064      -1678.6894
  21105174.4904  -22163592.78648 -17225033.06847  21105174.5354   21105176.4354
       577.4484        449.9544
  19981666.8314  -29537685.19449 -22963125.24048  19981666.7584   19981668.0314
      -989.7344       -771.2184
  24034267.6864   -6739555.17947  -5212502.11646  24034266.3954   24034268.1964
      2893.7864       2254.8944
 06  6 26 13 11  0.0000000  0  8G29G 9G18G10G 2G 6G26G21
  20655782.8754  -21192442.70448 -16470871.74248  20655783.1774   20655784.1684
     -1962.0654      -1528.8794
  23666047.4924  -10828801.08447  -8430335.34246  23666048.5394   23666050.5674
      2980.9184       2322.7974
  23708398.1194   -8991141.22547  -7002106.16946  23708397.5134   23708400.1504
      1103.0474        859.5194
  23509682.9154   -8599448.53447  -6650569.35346  23509681.4284   23509685.7774
     -1902.7514      -1482.6594
  23334931.9914  -11035681.50647  -8557103.91046  23334932.4424   23334932.0754
     -2163.8964      -1686.1484
  21101921.9224  -22180683.87048 -17238350.79747  21101921.8954   21101924.4754
       560.0434        436.3844
  19987370.0974  -29507713.20949 -22939770.45648  19987370.2364   19987371.9244
     -1010.2134       -787.1804
  24017731.0284   -6826454.74947  -5280216.05846  24017729.6014   24017731.1674
      2897.4904       2257.7894
 06  6 26 13 11 30.0000000  0  8G29G 9G18G10G 2G 6G26G21
  20667021.6594  -21133383.78248 -16424851.81148  20667021.5104   20667022.7124
     -1976.5334      -1540.1674
  23649018.4474  -10918285.73347  -8500063.58946  23649018.7384   23649022.5994
      2983.3914       2324.7234
  23702106.0464   -9024204.65647  -7027869.87946  23702106.2004   23702108.6034
      1099.7774        856.9654
  23520532.4404   -8542432.81147  -6606141.52846  23520531.5334   23520535.0534
     -1899.5024      -1480.1404
  23347306.7784  -10970647.40747  -8506427.98346  23347306.7654   23347308.1064
     -2173.4404      -1693.5874
  21098770.9114  -22197242.40248 -17251253.56547  21098771.0944   21098773.4974
       542.4354        422.6654
  19993193.3944  -29477114.20149 -22915927.09048  19993193.2584   19993194.6144
     -1030.9764       -803.3624
  24001175.4344   -6913454.50047  -5348008.04046  24001174.2394   24001176.6104
      2900.9574       2260.4794
 06  6 26 13 12  0.0000000  0  8G29G 9G18G10G 2G 6G26G21
  20678342.9534  -21073888.67448 -16378491.99248  20678343.0794   20678344.5854
     -1990.3534      -1550.9244
  23631979.5644  -11007842.22047  -8569847.83946  23631978.3194   23631978.9564
      2986.4234       2327.0954
  23695834.1644   -9057168.04647  -7053555.63246  23695833.6984   23695834.5574
      1097.2254        854.9824
  23531362.6594   -8485520.51047  -6561794.29146  23531362.5834   23531365.4314
     -1895.0754      -1476.6964
  23359738.0434  -10905327.34447  -8455529.27546  23359738.4374   23359736.9884
     -2182.2074      -1700.4294
  21095721.3354  -22213271.70448 -17263743.93747  21095720.7124   21095722.9964
       525.4974        409.4714
  19999133.9304  -29445893.62749 -22891599.37848  19999134.1804   19999135.9214
     -1050.8444       -818.8394
  23984600.2574   -7000556.81347  -5415879.92946  23984599.7324   23984602.1784
      2905.0814       2263.6914
 06  6 26 13 12 30.0000000  0  8G29G 9G18G10G 2G 6G26G21
  20689747.8574  -21013954.95248 -16331790.39948  20689747.9754   20689749.1764
     -2005.3734      -1562.6114
  23614923.1054  -11097462.85647  -8639682.10346  23614923.4134   23614925.6184
      2988.0764       2328.3704
  23689580.7244   -9090026.79047  -7079159.84846  23689581.2524   23689581.7084
      1093.1954        851.8284
  23542173.1714   -8428706.70047  -6517523.79046  23542171.9024   23542176.0934
     -1892.2434      -1474.4634
  23372223.3864  -10839716.27247  -8404403.80346  23372222.9954   23372224.3784
     -2192.0774      -1708.1014
  21092772.4054  -22228766.50948 -17275817.82147  21092772.6274   21092773.9624
       507.2244        395.2584
  20005193.9654  -29414048.24849 -22866784.81148  20005194.4184   20005195.7694
     -1072.1564       -835.4334
  23968005.9054   -7087755.30247  -5483826.74646  23968006.4074   23968009.1354
      2907.7904       2265.8234
 06  6 26 13 13  0.0000000  0  8G29G 9G18G10G 2G 6G26G21
  20701235.5634  -20953588.00648 -16284751.23448  20701235.5594   20701237.0864
     -2019.4794      -1573.6224
  23597856.6424  -11187147.22847  -8709565.99846  23597857.6074   23597860.1714
      2990.8804       2330.5474
  23683345.7464   -9122785.19547  -7104685.87346  23683346.6304   23683348.3994
      1090.4884        849.7464
  23552965.5834   -8371994.81047  -6473332.69946  23552965.3864   23552967.8954
     -1888.7834      -1471.7904
  23384762.2474  -10773817.83147  -8353054.39246  23384764.0364   23384761.5554
     -2201.3444      -1715.3234
  21089924.4404  -22243729.78948 -17287477.52847  21089924.6264   21089927.0544
       490.0474        381.8544
  20011372.0514  -29381582.91149 -22841487.15248  20011372.3184   20011373.6244
     -1092.4014       -851.2254
  23951395.2374   -7175051.71447  -5551849.90646  23951393.7354   23951396.8944
      2911.8694       2268.9994
 06  6 26 13 13 30.0000000  0  8G29G 9G18G10G 2G 6G26G21
  20712805.2784  -20892789.17248 -16237375.53248  20712804.9294   20712806.4724
     -2033.8384      -1584.8214
  23580779.9344  -11276891.13847  -8779496.29346  23580779.7644   23580783.3454
      2992.5754       2331.8784
  23677131.7984   -9155443.02447  -7130133.52446  23677132.4834   23677134.3614
      1086.9084        846.9494
  23563738.0164   -8315383.32847  -6429219.86246  23563737.2984   23563740.5284
     -1885.4934      -1469.2034
  23397358.9124  -10707630.55747  -8301479.93946  23397359.0784   23397358.5134
     -2211.0104      -1722.8654
  21087178.6944  -22258159.88548 -17298721.76747  21087178.8464   21087181.4634
       472.0804        367.8514
  20017668.1294  -29348498.04849 -22815706.74748  20017668.1404   20017669.4574
     -1113.1284       -867.3754
  23934764.9594   -7262442.74047  -5619946.77146  23934763.6464   23934767.2834
      2914.4494       2271.0024
 06  6 26 13 14  0.0000000  0  8G29G 9G18G10G 2G 6G26G21
  20724456.3744  -20831563.29248 -16189667.06648  20724455.6584   20724457.4864
     -2048.0154      -1595.8514
  23563691.0584  -11366694.10247  -8849472.58146  23563690.5934   23563693.4764
      2994.4904       2333.3864
  23670935.2644   -9188003.37947  -7155505.22646  23670936.6814   23670938.5294
      1083.5104        844.2814
  23574492.0344   -8258874.63347  -6385187.10246  23574491.9504   23574495.9454
     -1882.0694      -1466.5454
  23410007.6994  -10641156.93147  -8249682.31546  23410007.3194   23410007.8284
     -2220.5284      -1730.2744
  21084533.9804  -22272059.02548 -17309552.27047  21084534.1664   21084536.6774
       454.3964        354.0864
  20024080.7204  -29314797.70549 -22789446.74348  20024081.2454   20024082.2674
     -1133.6014       -883.3214
  23918116.0134   -7349929.35447  -5688118.10346  23918116.0784   23918118.9104
      2917.7484       2273.5764
 06  6 26 13 14 30.0000000  0  8G29G 9G18G10G 2G 6G26G21
  20736187.5734  -20769913.54548 -16141628.31548  20736187.3924   20736189.3964
     -2063.0514      -1607.5754
  23546590.1304  -11456554.22747  -8919493.44546  23546589.7904   23546592.3794
      2995.0044       2333.7664
  23664758.9684   -9220468.22647  -7180802.51746  23664757.3054   23664760.5494
      1079.5494        841.2074
  23585225.4794   -8202469.42547  -6341234.99146  23585224.0964   23585228.1274
     -1879.3714      -1464.4434
  23422711.4474  -10574397.89247  -8197662.29946  23422710.9224   23422711.6274
     -2231.1994      -1738.6034
  21081989.6404  -22285427.63048 -17319969.37047  21081990.0734   21081992.3524
       435.7144        339.5224
  20030610.5374  -29280484.46949 -22762709.16648  20030610.8454   20030612.0824
     -1154.9614       -899.9714
  23901450.8824   -7437510.92147  -5756363.44146  23901450.7734   23901452.3074
      2920.1794       2275.4564
 06  6 26 13 15  0.0000000  0  8G29G 9G18G10G 2G 6G26G21
  20748000.5794  -20707836.98248 -16093256.98248  20748000.3014   20748001.5944
     -2075.7804      -1617.4894
  23529482.2044  -11546462.57847  -8989551.87546  23529481.3594   23529484.2064
      2998.3684       2336.3894
  23658600.5354   -9252832.85947  -7206021.70846  23658599.7424   23658601.7604
      1077.5844        839.6694
  23595939.1344   -8146162.17047  -6297359.21546  23595938.8794   23595943.8264
     -1874.8584      -1460.9044
  23435471.6414  -10507348.21947  -8145415.85446  23435471.2934   23435470.7774
     -2239.1644      -1744.8074
  21079548.4274  -22298260.05548 -17329968.67047  21079547.7064   21079550.4374
       419.2774        326.7084
  20037257.4574  -29245554.84449 -22735491.28248  20037257.5884   20037258.5314
     -1174.1174       -914.8944
  23884767.3884   -7525180.24147  -5824677.15846  23884766.4434   23884767.6054
      2924.2834       2278.6554
 06  6 26 13 15 30.0000000  0  8G29G 9G18G10G 2G 6G26G21
  20759892.4304  -20645346.12648 -16044562.81748  20759892.3404   20759893.3684
     -2090.4124      -1628.8924
  23512361.7234  -11636426.03247  -9059653.24046  23512361.0574   23512365.6174
      2999.1614       2337.0104
  23652458.2604   -9285108.07147  -7231171.23046  23652457.9404   23652460.0244
      1074.0044        836.8834
  23606635.3094   -8089962.96047  -6253567.61946  23606634.8094   23606636.7164
     -1871.9114      -1458.6464
  23448282.0874  -10440017.93147  -8092950.69746  23448283.0774   23448282.6114
     -2249.4044      -1752.7684
  21077204.1994  -22310566.00448 -17339557.73147  21077206.6484   21077208.4234
       400.8964        312.4064
  20044019.4134  -29210020.38549 -22707802.09548  20044019.7104   20044020.7004
     -1195.0184       -931.1834
  23868065.2194   -7612945.24947  -5893065.43846  23868065.6524   23868067.4334
      2926.6324       2280.4944
 06  6 26 13 16  0.0000000  0  8G29G 9G18G10G 2G 6G26G21
  20771863.8704  -20582435.08148 -15995541.23348  20771863.6024   20771864.8484
     -2103.4704      -1639.0784
  23495232.8074  -11726433.78047  -9129789.10146  23495233.3434   23495236.4074
      3001.4964       2338.8264
  23646334.6744   -9317286.70647  -7256245.49446  23646335.4974   23646336.6044
      1071.6044        835.0034
  23617309.7844   -8033863.30347  -6209853.59046  23617308.6924   23617312.3524
     -1867.8014      -1455.4404
  23461149.4784  -10372398.97647  -8040260.63346  23461149.3654   23461151.0004
     -2258.0634      -1759.5224
  21074968.5474  -22322337.31148 -17348730.18047  21074965.8454   21074968.9274
       384.0054        299.2174
  20050897.7004  -29173874.81049 -22679636.72048  20050897.8544   20050899.1084
     -1214.5424       -946.3984
  23851350.1054   -7700796.65547  -5961521.05746  23851349.7184   23851350.3774
      2930.4414       2283.4574
 06  6 26 13 16 30.0000000  0  8G29G 9G18G10G 2G 6G26G21
  20783914.3774  -20519107.67248 -15946195.20548  20783914.3704   20783915.4334
     -2117.9624      -1650.3504
  23478099.6284  -11816483.42447  -9199957.65346  23478098.5224   23478100.1554
      3001.7174       2339.0064
  23640229.3754   -9349370.90547  -7281246.16046  23640227.7484   23640230.6014
      1067.5354        831.8404
  23627967.0894   -7977864.02647  -6166217.80146  23627965.8854   23627969.7414
     -1865.2024      -1453.4034
  23474074.5414  -10304492.62547  -7987346.62946  23474072.8004   23474072.6724
     -2268.7704      -1767.8714
  21072825.2904  -22333574.55348 -17357486.50047  21072827.6494   21072830.2914
       365.4734        284.7854
  20057891.6234  -29137120.96449 -22650997.36548  20057891.8484   20057893.2204
     -1235.4724       -962.7074
  23834614.3364   -7788733.70847  -6030043.38646  23834613.2234   23834615.8964
      2932.5474       2285.0984
 06  6 26 13 17  0.0000000  0  8G29G 9G18G10G 2G 6G26G21
  20796042.9764  -20455371.78748 -15896530.89648  20796043.1364   20796044.3784
     -2131.1094      -1660.6004
  23460953.6674  -11906576.97647  -9270160.39746  23460954.5874   23460957.7604
      3003.8474       2340.6524
  23634138.8804   -9381366.93847  -7306178.13246  23634140.3794   23634142.2424
      1065.2414        830.0484
  23638602.0954   -7921970.61147  -6122664.47646  23638602.4814   23638603.9464
     -1861.1884      -1450.2834
  23487048.7964  -10236304.45047  -7934212.99646  23487048.6364   23487050.0644
     -2277.6824      -1774.8124
  21070789.1904  -22344283.37548 -17365831.03947  21070789.8824   21070792.4334
       348.3424        271.4334
  20064999.9024  -29099766.27749 -22621889.82448  20065000.2064   20065001.6904
     -1254.9704       -977.8894
  23817864.9844   -7876760.15847  -6098635.38846  23817863.7244   23817865.0884
      2935.7664       2287.6174
 06  6 26 13 17 30.0000000  0  8G29G 9G18G10G 2G 6G26G21
  20808249.5294  -20391223.80948 -15846545.46548  20808249.8264   20808251.1904
     -2145.0384      -1671.4604
  23443801.8724  -11996705.65847  -9340390.46946  23443802.1874   23443806.5544
      3005.0754       2341.6124
  23628068.7644   -9413269.51147  -7331037.27246  23628069.9924   23628071.2764
      1061.8714        827.4334
  23649219.5334   -7866176.74447  -6079188.72946  23649218.9834   23649221.8004
     -1857.9934      -1447.7724
  23500079.2604  -10167828.42147  -7880855.09346  23500078.3684   23500078.7704
     -2287.3734      -1782.3664
  21068851.4574  -22354457.30848 -17373758.79647  21068854.5864   21068856.4754
       330.4144        257.4824
  20072223.1674  -29061806.57349 -22592310.84548  20072223.7684   20072225.2684
     -1275.2134       -993.6664
  23801097.5114   -7964868.25847  -6167291.00846  23801097.0454   23801099.6984
      2938.5154       2289.7544
 06  6 26 13 18  0.0000000  0  8G29G 9G18G10G 2G 6G26G21
  20820534.5424  -20326670.58448 -15796244.26748  20820534.2574   20820535.1804
     -2157.8924      -1681.4874
  23426646.2664  -12086870.73647  -9410648.96846  23426645.6484   23426647.3784
      3006.7314       2342.9034
  23622016.1294   -9445084.10047  -7355827.86846  23622014.9914   23622017.7464
      1059.6394        825.6894
  23659816.9204   -7810486.65447  -6035793.85746  23659817.0394   23659820.1594
     -1854.1014      -1444.7464
  23513163.6774  -10099069.30647  -7827276.57446  23513163.3874   23513164.4574
     -2296.2524      -1789.2894
  21067021.2054  -22364100.71548 -17381273.13047  21067018.3814   21067020.9924
       313.1634        244.0174
  20079560.8864  -29023247.95549 -22562265.17648  20079561.3324   20079562.3874
     -1294.5054      -1008.7114
  23784314.5064   -8053060.57747  -6236012.24846  23784314.2234   23784316.7794
      2941.4794       2292.0674
 06  6 26 13 18 30.0000000  0  8G29G 9G18G10G 2G 6G26G21
  20832894.5654  -20261714.85448 -15745629.43148  20832894.8834   20832895.8904
     -2172.0834      -1692.5344
  23409481.3374  -12177069.46747  -9480933.65146  23409481.3834   23409483.6874
      3006.8414       2342.9924
  23615977.7544   -9476811.38047  -7380550.42846  23615977.4024   23615978.8244
      1055.9534        822.8274
  23670394.6674   -7754900.45447  -5992479.93946  23670394.9084   23670396.5314
     -1851.3614      -1442.6304
  23526301.0154  -10030027.44947  -7773477.76646  23526301.7314   23526303.5934
     -2306.1474      -1796.9934
  21065284.8284  -22373213.80148 -17388374.26047  21065284.6824   21065287.3014
       294.7514        229.6704
  20087011.7114  -28984092.78049 -22531754.65648  20087011.9274   20087013.4744
     -1315.2684      -1024.8864
  23767517.4524   -8141335.38247  -6304797.78146  23767517.9594   23767518.9854
      2943.5044       2293.6314
 06  6 26 13 19  0.0000000  0  8G29G 9G18G10G 2G 6G26G21
  20845331.4054  -20196357.56248 -15694701.68448  20845331.8234   20845333.2834
     -2184.4164      -1702.1434
  23392311.4914  -12267296.52147  -9551240.41646  23392311.5714   23392314.0864
      3008.7894       2344.4904
  23609957.3194   -9508450.94147  -7405204.61746  23609955.9264   23609959.1154
      1054.0644        821.3454
  23680953.4994   -7699416.47447  -5949245.65746  23680952.6434   23680954.6874
     -1846.6424      -1438.9504
  23539495.2164   -9960701.29047  -7719457.41646  23539495.5774   23539494.2134
     -2314.8744      -1803.7964
  21063652.0114  -22381794.92648 -17395060.86047  21063651.5524   21063654.3304
       277.8984        216.5344
  20094576.2914  -28944341.42749 -22500779.58648  20094576.6654   20094577.9934
     -1334.1924      -1039.6414
  23750703.8064   -8229689.58847  -6373645.20646  23750702.4834   23750704.9614
      2947.3214       2296.6174
 06  6 26 13 19 30.0000000  0  8G29G 9G18G10G 2G 6G26G21
  20857845.6324  -20130601.18648 -15643462.96748  20857844.8524   20857846.1374
     -2197.3834      -1712.2494
  23375136.6704  -12357549.61547  -9621567.44046  23375136.5524   23375139.9044
      3009.9174       2345.3924
  23603953.4444   -9540003.58347  -7429791.09146  23603952.1844   23603954.7714
      1051.3924        819.2814
  23691491.5104   -7644034.29847  -5906090.71346  23691490.1164   23691494.8254
     -1843.2954      -1436.3424
  23552741.0284   -9891091.02547  -7665215.68346  23552740.2304   23552741.3454
     -2323.7544      -1810.7104
  21062120.3364  -22389844.00348 -17401332.87947  21062120.1174   21062122.4494
       260.6244        203.0754
  20102254.3424  -28903995.50649 -22469341.21148  20102254.4144   20102255.5294
     -1353.5924      -1054.7554
  23733876.1184   -8318121.75947  -6442553.34646  23733875.2774   23733875.6454
      2950.1014       2298.7864
 06  6 26 13 20  0.0000000  0  8G29G 9G18G10G 2G 6G26G21
  20870432.5434  -20064450.37448 -15591916.89448  20870433.0984   20870434.3804
     -2212.1494      -1723.7564
  23357957.5044  -12447827.36247  -9691913.70546  23357958.0724   23357958.7734
      3008.9794       2344.6764
  23597964.2354   -9571472.35047  -7454312.18546  23597963.4454   23597967.3194
      1046.9174        815.7834
  23702009.9904   -7588755.85447  -5863016.59546  23702009.8434   23702013.6454
     -1841.4184      -1434.8744
  23566041.6294   -9821199.09647  -7610754.44746  23566039.8474   23566040.2234
     -2334.8964      -1819.3964
  21060689.3924  -22397362.96048 -17407191.82147  21060689.2454   21060691.7604
       241.1844        187.9284
  20110043.9884  -28863059.36049 -22437442.91848  20110044.2744   20110045.1594
     -1374.8604      -1071.3204
  23717033.3034   -8406631.58247  -6511522.00746  23717031.6364   23717033.8124
      2950.9614       2299.4534
 06  6 26 13 20 30.0000000  0  8G29G 9G18G10G 2G 6G26G21
  20883094.8894  -19997907.22348 -15540065.09348  20883095.3854   20883097.3484
     -2225.2834      -1733.9934
  23340774.2284  -12538125.88947  -9762276.17646  23340773.3054   23340775.4794
      3009.4614       2345.0374
  23591991.5524   -9602857.90147  -7478768.45446  23591991.3334   23591994.1314
      1044.0274        813.5234
  23712510.8834   -7533580.27447  -5820022.65746  23712510.2644   23712513.0014
     -1838.1144      -1432.2994
  23579394.1974   -9751025.22347  -7556073.54146  23579394.0064   23579394.7124
     -2344.5254      -1826.8964
  21059358.8624  -22404351.51348 -17412637.45547  21059359.2654   21059361.8244
       223.2624        173.9764
  20117946.2524  -28821534.50049 -22405085.88748  20117946.2544   20117947.6744
     -1394.7464      -1086.8184
  23700174.7514   -8495217.00047  -6580549.56646  23700174.2184   23700176.9294
      2953.3514       2301.3074
 06  6 26 13 21  0.0000000  0  8G29G 9G18G10G 2G 6G26G21
  20895833.1664  -19930972.50548 -15487908.20048  20895833.1814   20895833.8284
     -2237.2634      -1743.3284
  23323588.5514  -12628440.11947  -9832650.85646  23323588.2364   23323590.7644
      3011.0964       2346.3034
  23586036.0864   -9634159.15047  -7503159.03246  23586034.6904   23586037.7774
      1042.4764        812.3064
  23722991.6344   -7478505.62247  -5777107.33846  23722989.8844   23722993.3094
     -1833.7154      -1428.8634
  23592802.7474   -9680567.74947  -7501171.62146  23592803.5474   23592803.1024
     -2352.8674      -1833.4024
  21058130.9854  -22410807.77848 -17417668.32947  21058131.3084   21058133.9444
       206.7854        161.1134
  20125959.5914  -28779421.33649 -22372270.44248  20125959.9484   20125960.9064
     -1413.0724      -1101.0994
  23683305.5424   -8583874.75347  -6649633.49946  23683303.6984   23683305.1094
      2956.8784       2304.0604
 06  6 26 13 21 30.0000000  0  8G29G 9G18G10G 2G 6G26G21
  20908642.3704  -19863654.47548 -15435452.60148  20908643.3514   20908644.0924
     -2251.2404      -1754.2184
  23306398.6344  -12718772.38547  -9903039.60046  23306398.3624   23306401.0504
      3010.4074       2345.7794
  23580093.9184   -9665382.62647  -7527489.00646  23580093.4694   23580095.9824
      1038.6254        809.3124
  23733451.8274   -7423537.24247  -5734274.83546  23733450.6324   23733452.8604
     -1831.5834      -1427.2024
  23606262.3864   -9609832.57447  -7446053.36446  23606262.4574   23606263.5714
     -2363.2824      -1841.5134
  21057002.5704  -22416737.44748 -17422288.84847  21057002.8124   21057004.5624
       187.9414        146.4474
  20134084.1864  -28736727.39249 -22339002.43748  20134084.3484   20134085.2684
     -1433.6714      -1117.1484
  23666419.8854   -8672608.34147  -6718776.53146  23666418.4314   23666419.9394
      2958.0664       2304.9924
 06  6 26 13 22  0.0000000  0  8G29G 9G18G10G 2G 6G26G21
  20921527.2464  -19795949.09548 -15382695.17648  20921527.0324   20921528.4534
     -2263.2554      -1763.5814
  23289206.7314  -12809113.58147  -9973435.30746  23289205.3304   23289208.6084
      3011.5184       2346.6254
  23574168.1754   -9696522.59647  -7551753.91346  23574168.2054   23574169.8614
      1036.4914        807.6554
  23743892.7584   -7368668.37947  -5691519.88146  23743893.2764   23743894.5154
     -1827.3314      -1423.8954
  23619776.9324   -9538813.69847  -7390713.98746  23619776.8224   23619775.4324
     -2372.3344      -1848.5824
  21055976.0464  -22422134.34448 -17426494.23847  21055975.4374   21055978.0634
       170.8974        133.1644
  20142319.6854  -28693448.34149 -22305278.50748  20142320.1244   20142321.3664
     -1452.3004      -1131.6664
  23649521.0584   -8761409.27447  -6787972.02646  23649519.8234   23649521.2184
      2961.2144       2307.4374
 06  6 26 13 22 30.0000000  0  8G29G 9G18G10G 2G 6G26G21
  20934484.1014  -19727863.04348 -15329641.12748  20934483.5684   20934485.1844
     -2275.0054      -1772.7244
  23272013.8364  -12899463.94547 -10043838.18946  23272014.3254   23272016.7714
      3012.7354       2347.5894
  23568257.2754   -9727584.03247  -7575957.62046  23568256.3894   23568258.7124
      1034.8064        806.3464
  23754313.9864   -7313903.13947  -5648845.66546  23754313.1174   23754316.6014
     -1822.8534      -1420.4114
  23633343.7474   -9467515.22747  -7335156.76746  23633343.8814   23633346.2664
     -2380.7504      -1855.1134
  21055048.6554  -22427002.27648 -17430287.43847  21055049.3804   21055051.4314
       154.1484        120.1224
  20150665.3734  -28649590.30349 -22271103.42148  20150665.8964   20150667.4244
     -1470.8004      -1146.0714
  23632609.8824   -8850279.80247  -6857221.76146  23632608.7904   23632609.0214
      2964.1804       2309.7524
 06  6 26 13 23  0.0000000  0  8G29G 9G18G10G 2G 6G26G21
  20947511.1194  -19659399.36348 -15276292.81548  20947511.4814   20947513.1074
     -2287.6734      -1782.5794
  23254819.8234  -12989821.17847 -10114246.38146  23254820.4364   23254821.7414
      3012.6464       2347.5254
  23562361.8354   -9758568.55147  -7600101.39646  23562360.9504   23562362.4224
      1032.1944        804.3104
  23764714.9214   -7259241.53747  -5606252.24746  23764714.9294   23764719.2404
     -1819.6344      -1417.8944
  23646965.3504   -9395937.88047  -7279382.27746  23646964.8254   23646963.9614
     -2389.6434      -1862.0524
  21054224.0014  -22431342.05048 -17433669.09047  21054222.9794   21054225.7354
       136.6734        106.5004
  20159121.3994  -28605155.92349 -22236479.23948  20159121.1874   20159122.4714
     -1489.9554      -1160.9874
  23615683.8494   -8939218.93147  -6926524.94946  23615684.9124   23615685.9174
      2966.7504       2311.7464
 06  6 26 13 23 30.0000000  0  8G29G 9G18G10G 2G 6G26G21
  20960612.0884  -19590559.35248 -15222651.26148  20960611.6574   20960612.9404
     -2300.0414      -1792.2464
  23237624.6684  -13080180.37447 -10184656.11246  23237623.2074   23237627.6934
      3012.8584       2347.6634
  23556479.6614   -9789475.58747  -7624184.79346  23556478.9534   23556482.3924
      1030.0664        802.6564
  23775097.3714   -7204682.10547  -5563738.40246  23775098.1304   23775099.2794
     -1816.3034      -1415.3084
  23660639.5224   -9324080.82647  -7223389.70846  23660638.6444   23660640.2704
     -2398.9564      -1869.3194
  21053499.0304  -22435152.58148 -17436638.33747  21053499.0894   21053500.6024
       119.0804         92.7904
  20167686.1664  -28560146.13749 -22201406.68648  20167686.5454   20167687.9944
     -1508.9374      -1175.7924
  23598747.2944   -9028223.57747  -6995879.18246  23598747.6134   23598747.4934
      2968.9804       2313.4814
 06  6 26 13 24  0.0000000  0  8G29G 9G18G10G 2G 6G26G21
  20973782.3464  -19521346.57148 -15168719.24647  20973782.3574   20973783.6344
     -2313.0694      -1802.3794
  23220430.6514  -13170539.68447 -10255065.95846  23220430.7194   23220431.8834
      3012.2214       2347.1904
  23550612.2944   -9820307.21447  -7648209.42646  23550613.4474   23550613.3664
      1026.6334        799.9694
  23785459.3494   -7150225.53447  -5521304.70446  23785459.6704   23785462.9484
     -1813.1764      -1412.8654
  23674367.5774   -9251945.35247  -7167180.36346  23674366.9694   23674368.2324
     -2408.8574      -1877.0224
  21052873.6964  -22438435.19648 -17439196.23047  21052873.9164   21052876.0414
       100.7504         78.5234
  20176360.6224  -28514563.97949 -22165888.13948  20176360.7054   20176361.6194
     -1528.7594      -1191.2274
  23581798.1394   -9117292.83247  -7065283.78546  23581797.5664   23581798.5924
      2970.0494       2314.3284
 06  6 26 13 24 30.0000000  0  8G29G 9G18G10G 2G 6G26G21
  20987022.5394  -19451764.64848 -15114499.56947  20987022.8724   20987024.7944
     -2325.1104      -1811.7814
  23203234.4404  -13260896.58747 -10325473.90546  23203234.9704   23203237.0874
      3012.1794       2347.1514
  23544760.0174   -9851064.89047  -7672176.43146  23544759.0064   23544762.1704
      1024.4204        798.2474
  23795803.5084   -7095872.49647  -5478951.67546  23795803.9264   23795807.0034
     -1809.4074      -1409.9224
  23688145.2374   -9179532.73547  -7110754.95346  23688144.3114   23688143.2934
     -2417.8364      -1884.0414
  21052349.0044  -22441190.87648 -17441343.51647  21052349.6944   21052351.5994
        83.5114         65.0744
  20185142.8874  -28468412.71549 -22129926.12448  20185142.8814   20185144.4364
     -1547.3864      -1205.7584
  23564837.4684   -9206425.56447  -7134737.83146  23564836.8784   23564837.6064
      2972.7834       2316.4454
 06  6 26 13 25  0.0000000  0  8G29G 9G18G10G 2G 6G26G21
  21000334.5534  -19381816.08948 -15059994.21847  21000334.0794   21000335.7634
     -2338.0024      -1821.8144
  23186041.2194  -13351247.92847 -10395877.52246  23186042.0634   23186044.2894
      3011.4374       2346.5874
  23538920.6514   -9881749.87547  -7696086.79746  23538920.5544   23538922.3314
      1021.0074        795.5964
  23806127.8864   -7041622.51347  -5436678.96546  23806126.5364   23806129.6974
     -1806.9714      -1408.0364
  23701978.5104   -9106843.37347  -7054113.88646  23701978.7154   23701979.3384
     -2427.8824      -1891.8444
  21051925.0824  -22443419.77848 -17443080.32747  21051925.1714   21051927.7394
        65.1934         50.8084
  20194033.0934  -28421694.58449 -22093522.39848  20194033.2684   20194034.3884
     -1567.0524      -1221.0774
  23547862.5154   -9295619.48747  -7204239.55946  23547862.7674   23547866.0594
      2973.6614       2317.1374
 06  6 26 13 25 30.0000000  0  8G29G 9G18G10G 2G 6G26G21
  21013714.1594  -19311502.34448 -15005204.30147  21013714.0644   21013715.5714
     -2349.2964      -1830.6394
  23168849.9484  -13441588.65647 -10466272.87146  23168850.7074   23168853.8994
      3011.4414       2346.5864
  23533095.8304   -9912362.19147  -7719940.54646  23533094.8794   23533096.3534
      1019.5504        794.4614
  23816431.3304   -6987474.08847  -5394485.41546  23816430.6254   23816434.2194
     -1802.7124      -1404.6884
  23715863.8924   -9033876.29547  -6997256.52346  23715863.2564   23715863.2774
     -2436.5954      -1898.6424
  21051602.0384  -22445121.08148 -17444406.02747  21051601.4234   21051603.4804
        48.5034         37.7914
  20203030.8684  -28374410.64449 -22056677.78348  20203031.0584   20203032.3534
     -1585.0094      -1235.0814
  23530879.4764   -9384871.88047  -7273786.84246  23530878.9084   23530881.9744
      2976.6474       2319.4594
 06  6 26 13 26  0.0000000  0  8G29G 9G18G10G 2G 6G26G21
  21027163.3274  -19240826.63148 -14950132.32447  21027163.6154   21027165.4684
     -2361.2694      -1839.9434
  23151662.3094  -13531916.67547 -10536658.33046  23151661.7924   23151664.2434
      3011.3884       2346.5524
  23527283.5054   -9942902.72147  -7743738.34546  23527283.1814   23527286.1194
      1017.5054        792.8604
  23826715.8934   -6933427.68947  -5352371.34346  23826716.9114   23826717.9844
     -1799.1814      -1401.9614
  23729802.0884   -8960632.64547  -6940183.49746  23729801.4814   23729798.6864
     -2445.5114      -1905.5974
  21051377.8514  -22446295.53148 -17445321.18347  21051377.8614   21051380.2724
        30.8044         24.0174
  20212135.9614  -28326563.55549 -22019394.34348  20212135.7834   20212137.1824
     -1603.6324      -1249.5724
  23513884.8664   -9474181.47547  -7343378.73546  23513883.7844   23513885.7784
      2978.3674       2320.8064
 06  6 26 13 26 30.0000000  0  8G29G 9G18G10G 2G 6G26G21
  21040680.6844  -19169794.11548 -14894782.33047  21040680.1514   21040682.4164
     -2374.3704      -1850.1534
  23134475.6024  -13622230.89747 -10607033.02746  23134475.2194   23134477.9214
      3009.4024       2345.0014
  23521484.6394   -9973374.87547  -7767482.87946  23521484.1924   23521486.7944
      1013.7554        789.9404
  23836980.6944   -6879485.21147  -5310338.25246  23836979.6744   23836983.7484
     -1797.0104      -1400.2774
  23743791.3764   -8887115.16347  -6882897.17146  23743791.4824   23743794.1744
     -2456.0244      -1913.7794
  21051254.1444  -22446945.82948 -17445827.90747  21051254.2404   21051256.3864
        12.2054          9.5124
  20221346.6734  -28278158.28249 -21981675.96148  20221347.1154   20221348.5264
     -1623.4704      -1265.0394
  23496879.0814   -9563548.81647  -7413015.58846  23496878.2854   23496879.3154
      2979.2284       2321.4714
 06  6 26 13 27  0.0000000  0  8G29G 9G18G10G 2G 6G26G21
  21054265.0754  -19098405.82848 -14839155.10847  21054265.0544   21054266.8994
     -2385.5914      -1858.9134
  23117293.0844  -13712526.78047 -10677393.44046  23117293.3924   23117295.7044
      3009.2844       2344.8664
  23515699.8204  -10003778.53247  -7791174.03146  23515697.9004   23515700.8134
      1012.0204        788.5654
  23847225.5944   -6825644.90647  -5268384.78646  23847225.7874   23847229.1524
     -1793.1454      -1397.2514
  23757834.8394   -8813322.63947  -6825396.65546  23757833.8404   23757832.4134
     -2464.2544      -1920.2134
  21051230.2854  -22447071.09448 -17445925.51547  21051230.3274   21051232.6354
        -4.8314         -3.7784
  20230664.3334  -28229195.59749 -21943523.23548  20230664.4494   20230666.0334
     -1641.5754      -1279.1574
  23479861.9674   -9652970.82047  -7482695.06146  23479860.6674   23479863.6214
      2981.4164       2323.1804
 06  6 26 13 27 30.0000000  0  8G29G 9G18G10G 2G 6G26G21
  21067916.6854  -19026665.50248 -14783253.57147  21067916.5964   21067917.9854
     -2398.2204      -1868.7504
  23100114.7134  -13802801.61947 -10747737.44046  23100114.0864   23100116.1974
      3007.4584       2343.4644
  23509926.6624  -10034115.04847  -7814812.86046  23509926.3244   23509929.0914
      1009.1394        786.3314
  23857452.0224   -6771907.55747  -5226511.54046  23857451.3204   23857455.2264
     -1790.6544      -1395.3134
  23771927.4964   -8739256.55247  -6767682.65346  23771927.9504   23771929.2614
     -2474.2624      -1927.9904
  21051306.7204  -22446672.57948 -17445614.98447  21051305.7834   21051308.2184
       -23.0354        -17.9634
  20240086.8884  -28179678.78149 -21904938.71848  20240086.9024   20240088.2294
     -1660.9104      -1294.2244
  23462835.4554   -9742445.55547  -7552415.60746  23462835.3274   23462837.9534
      2982.5614       2324.0764
 06  6 26 13 28  0.0000000  0  8G29G 9G18G10G 2G 6G26G21
  21081635.9724  -18954573.78548 -14727078.22847  21081635.6784   21081637.0324
     -2408.4144      -1876.6844
  23082940.1904  -13893050.94247 -10818061.58746  23082940.5604   23082942.2914
      3008.5404       2344.2934
  23504166.5194  -10064383.74647  -7838398.85746  23504165.5624   23504167.8374
      1008.4404        785.8034
  23867659.4434   -6718270.83147  -5184716.69046  23867657.2424   23867659.6584
     -1785.8114      -1391.5504
  23786074.9524   -8664915.27947  -6709754.59446  23786075.6004   23786076.6394
     -2481.9164      -1933.9504
  21051481.6054  -22445748.83748 -17444895.19347  21051481.6854   21051484.3234
       -38.9924        -30.3764
  20249615.1324  -28129608.39149 -21865922.84748  20249615.3584   20249616.2394
     -1677.6944      -1307.2834
  23445799.2654   -9831970.11647  -7622174.97346  23445799.4044   23445801.2854
      2985.6064       2326.4524
 06  6 26 13 28 30.0000000  0  8G29G 9G18G10G 2G 6G26G21
  21095420.0304  -18882135.74748 -14670633.01447  21095419.7354   21095421.7764
     -2420.5234      -1886.1314
  23065771.8534  -13983273.55247 -10888364.91146  23065771.1334   23065772.6554
      3006.5124       2342.7304
  23498419.1434  -10094587.78147  -7861934.45046  23498419.4394   23498420.5984
      1005.3404        783.3874
  23877847.2254   -6664736.57347  -5143001.68646  23877845.4414   23877848.6774
     -1782.9674      -1389.3304
  23800272.2784   -8590301.84547  -6651614.20446  23800271.9934   23800270.5704
     -2491.9514      -1941.7974
  21051756.7494  -22444302.49348 -17443768.17747  21051757.1944   21051759.6184
       -57.1454        -44.5294
  20259247.5534  -28078989.01749 -21826479.19048  20259248.1634   20259249.2994
     -1696.7424      -1322.1384
  23428754.4344   -9921543.93047  -7691972.71846  23428754.9584   23428754.2744
      2986.2254       2326.9314
 06  6 26 13 29  0.0000000  0  8G29G 9G18G10G 2G 6G26G21
  21109270.4824  -18809352.02248 -14613918.43147  21109270.6274   21109271.8794
     -2433.2214      -1896.0104
  23048609.1604  -14073463.94547 -10958643.10846  23048609.4484   23048612.7604
      3004.3304       2341.0294
  23492683.0594  -10124725.84447  -7885418.62846  23492682.8054   23492685.9134
      1002.3144        781.0174
  23888014.4554   -6611302.43547  -5101364.68846  23888014.0294   23888016.2924
     -1780.9774      -1387.7814
  23814523.2384   -8515414.43547  -6593260.36346  23814523.4864   23814524.2584
     -2502.0564      -1949.6584
  21052132.3474  -22442332.03548 -17442232.74947  21052132.2064   21052134.1994
       -75.8594        -59.1094
  20268984.8764  -28027821.11349 -21786608.10548  20268984.4544   20268986.5394
     -1716.1044      -1337.2214
  23411699.7664  -10011163.59447  -7761806.19946  23411699.5704   23411701.3194
      2986.8384       2327.4054
 06  6 26 13 29 30.0000000  0  8G29G 9G18G10G 2G 6G26G21
  21123185.2594  -18736229.13448 -14556939.57547  21123185.2984   21123186.5464
     -2442.2484      -1903.0524
  23031452.0624  -14163622.46847 -11028896.49546  23031451.7434   23031453.5414
      3005.4904       2341.9404
  23486959.8104  -10154802.88547  -7908855.26146  23486959.5524   23486961.8574
      1002.2824        780.9874
  23898163.4304   -6557971.73547  -5059808.32046  23898162.5184   23898166.7814
     -1775.2904      -1383.3504
  23828826.2614   -8440257.51547  -6534696.65046  23828825.9324   23828827.7294
     -2508.9564      -1955.0304
  21052606.2394  -22439841.70148 -17440292.23147  21052606.0594   21052608.3804
       -90.8444        -70.7894
  20278824.9134  -27976110.88649 -21746314.43348  20278824.6864   20278826.1044
     -1731.9504      -1349.5724
  23394637.2304  -10100831.44147  -7831677.21646  23394637.1334   23394637.2084
      2990.4244       2330.1924
 06  6 26 13 30  0.0000000  0  8G29G 9G18G10G 2G 6G26G21
  21137163.7874  -18662767.63548 -14499696.86047  21137164.2154   21137165.5824
     -2453.7994      -1912.0464
  23014301.3664  -14253743.74247 -11099120.85346  23014302.4454   23014304.7594
      3004.1444       2340.8914
  23481248.7504  -10184817.83447  -7932243.51046  23481248.7264   23481250.1124
       999.8654        779.1174
  23908293.5324   -6504742.15747  -5018330.74846  23908291.8384   23908295.3684
     -1772.0634      -1380.8404
  23843176.6224   -8364829.58647  -6475921.58546  23843178.6624   23843177.7254
     -2518.0594      -1962.1324
  21053178.6084  -22436830.02848 -17437945.48047  21053179.3104   21053181.4594
      -108.6874        -84.6714
  20288768.1954  -27923858.79049 -21705598.52648  20288768.1704   20288769.4664
     -1750.2044      -1363.7914
  23377565.5904  -10190542.76047  -7901582.09746  23377565.3094   23377566.3514
      2991.6444       2331.1634
 06  6 26 13 30 30.0000000  0  8G29G 9G18G10G 2G 6G26G21
  21151208.2094  -18588969.29848 -14442191.67847  21151207.9254   21151209.5194
     -2465.5674      -1921.2124
  22997160.8034  -14343823.79547 -11169313.08446  22997160.3634   22997162.6694
      3002.0384       2339.2444
  23475549.8544  -10214770.76047  -7955583.42546  23475548.3954   23475549.6414
       997.5204        777.2834
  23918400.9604   -6451612.62047  -4976931.10046  23918402.4394   23918404.5444
     -1769.0534      -1378.4894
  23857585.8674   -8289130.20947  -6416935.12246  23857585.6824   23857586.2984
     -2527.5934      -1969.5534
  21053850.9784  -22433296.63648 -17435192.18847  21053851.8614   21053853.8954
      -126.5184        -98.5824
  20298813.7474  -27871066.39849 -21664461.60548  20298814.3274   20298815.6374
     -1768.6424      -1378.1604
  23360486.2354  -10280294.66347  -7971518.60946  23360485.7154   23360488.1194
      2992.3984       2331.7424
 06  6 26 13 31  0.0000000  0  8G29G 9G18G10G 2G 6G26G21
  21165314.5404  -18514839.91748 -14384428.54447  21165314.2734   21165315.4134
     -2476.5964      -1929.8214
  22980026.6524  -14433862.36547 -11239472.99446  22980026.9654   22980030.4564
      3000.1584       2337.7804
  23469860.6774  -10244665.52147  -7978878.03546  23469859.6844   23469861.5304
       995.6444        775.8294
  23928493.0994   -6398585.69647  -4935611.42146  23928492.2854   23928496.4374
     -1765.3544      -1375.5794
  23872039.5114   -8213162.97347  -6357739.95446  23872039.0994   23872041.5924
     -2536.9284      -1976.8274
  21054622.2594  -22429245.05648 -17432035.11647  21054622.9804   21054624.9404
      -143.8354       -112.0684
  20308961.9354  -27817739.26649 -21622908.00048  20308962.0354   20308963.2394
     -1786.5854      -1392.1344
  23343398.8184  -10370088.70847  -8041487.94746  23343398.6584   23343399.5324
      2993.7344       2332.7834
 06  6 26 13 31 30.0000000  0  8G29G 9G18G10G 2G 6G26G21
  21179482.8604  -18440381.37548 -14326408.91447  21179483.0034   21179484.6314
     -2486.8264      -1937.7794
  22962901.5304  -14523855.30247 -11309597.35346  22962901.4954   22962904.4634
      2999.6914       2337.4244
  23464183.1214  -10274502.18747  -8002127.37546  23464183.3054   23464184.2484
       994.0994        774.6184
  23938564.7624   -6345659.96247  -4894370.61346  23938563.6964   23938565.9424
     -1761.8984      -1372.8984
  23886548.7594   -8136927.64547  -6298335.77146  23886549.0064   23886545.9944
     -2545.0514      -1983.1664
  21055491.5964  -22424675.20748 -17428474.21047  21055492.2734   21055494.9254
      -160.2444       -124.8544
  20319211.3154  -27763878.97449 -21580938.94648  20319211.3934   20319212.6944
     -1803.5964      -1405.3944
  23326304.8944  -10459921.61347  -8111487.56946  23326303.2214   23326304.8054
      2995.4744       2334.1404
 06  6 26 13 32  0.0000000  0  8G29G 9G18G10G 2G 6G26G21
  21193713.9314  -18365596.88148 -14268135.28447  21193714.3034   21193715.6294
     -2499.4544      -1947.6404
  22945785.6954  -14613799.92247 -11379684.04646  22945785.5544   22945787.8194
      2995.9614       2334.5094
  23458515.2674  -10304282.15447  -8025332.53446  23458515.3274   23458517.0694
       990.3704        771.7044
  23948616.6434   -6292835.60547  -4853208.79446  23948617.1844   23948619.4914
     -1760.3244      -1371.6784
  23901105.6704   -8060425.28947  -6238723.56446  23901105.0634   23901107.2894
     -2555.9364      -1991.6474
  21056459.8464  -22419588.11448 -17424510.24347  21056460.2524   21056462.9244
      -179.4344       -139.8364
  20329561.1864  -27709488.66449 -21538556.88948  20329561.6754   20329562.8064
     -1823.0264      -1420.5534
  23309202.0254  -10549791.79647  -8181516.23946  23309200.6864   23309203.0014
      2995.1564       2333.8864
 06  6 26 13 32 30.0000000  0  8G29G 9G18G10G 2G 6G26G21
  21208007.3894  -18290486.23348 -14209607.52347  21208007.4584   21208008.8444
     -2508.9074      -1954.9904
  22928681.4464  -14703689.83647 -11449728.12447  22928680.4774   22928682.7144
      2995.8374       2334.4314
  23452858.8844  -10334003.56547  -8048492.05146  23452860.7554   23452861.5494
       990.0904        771.4894
  23958650.0774   -6240109.45447  -4812123.50946  23958649.2244   23958652.8724
     -1755.4394      -1367.8574
  23915713.6314   -7983653.31347  -6178901.39446  23915714.6314   23915716.4254
     -2563.3544      -1997.4174
  21057526.7474  -22413981.49348 -17420141.44547  21057526.4214   21057529.6914
      -195.3184       -152.1914
  20340012.3194  -27654568.13849 -21495761.67848  20340012.4304   20340013.8114
     -1839.2324      -1433.1664
  23292094.4334  -10639694.38347  -8251570.15846  23292094.0244   23292096.3254
      2997.3534       2335.5964
 06  6 26 13 33  0.0000000  0  8G29G 9G18G10G 2G 6G26G21
  21222360.9434  -18215054.81148 -14150829.80347  21222361.8434   21222362.5374
     -2520.7634      -1964.2314
  22911586.4814  -14793524.13647 -11519728.84747  22911585.9014   22911588.0274
      2992.5234       2331.8434
  23447213.7024  -10363669.98347  -8071608.71246  23447213.9964   23447216.6344
       986.9134        769.0144
  23968665.4424   -6187483.62247  -4771116.38346  23968664.6654   23968667.7964
     -1753.7804      -1366.5844
  23930375.3384   -7906615.03547  -6118871.50146  23930374.5984   23930372.8084
     -2573.5124      -2005.3344
  21058692.3154  -22407858.83048 -17415370.54347  21058691.9964   21058694.7764
      -213.7374       -166.5464
  20350563.4364  -27599122.37449 -21452557.18848  20350563.5464   20350565.1584
     -1857.9164      -1447.7214
  23274979.8494  -10729631.22347  -8321650.77346  23274979.3974   23274980.9484
      2997.1354       2335.4364
 06  6 26 13 33 30.0000000  0  8G29G 9G18G10G 2G 6G26G21
  21236776.6384  -18139304.28248 -14091803.43647  21236776.0364   21236778.2824
     -2530.6944      -1971.9884
  22894502.0264  -14883298.11547 -11589682.58147  22894502.9674   22894503.9314
      2991.0914       2330.7144
  23441578.0724  -10393281.45947  -8094682.57846  23441578.0414   23441581.6004
       985.9044        768.2414
  23978661.4704   -6134956.59747  -4730186.24446  23978659.9184   23978662.5184
     -1749.6204      -1363.3334
  23945084.3354   -7829310.06547  -6058633.93346  23945085.7294   23945087.1674
     -2581.6344      -2011.6614
  21059955.2874  -22401219.48348 -17410197.03247  21059955.6234   21059958.3174
      -230.3564       -179.5214
  20361213.7664  -27543152.85949 -21408944.58548  20361214.0724   20361215.5984
     -1874.6564      -1460.7824
  23257859.1434  -10819597.13247  -8391754.03146  23257859.4334   23257861.5234
      2998.6564       2336.6154
 06  6 26 13 34  0.0000000  0  8G29G 9G18G10G 2G 6G26G21
  21251250.6754  -18063241.77748 -14032533.96647  21251250.8574   21251251.9514
     -2541.4714      -1980.3884
  22877429.5184  -14973013.28547 -11659590.49047  22877430.9864   22877431.5444
      2988.5674       2328.7514
  23435952.9184  -10422843.15547  -8117717.65246  23435952.7584   23435955.8894
       983.7504        766.5364
  23988636.7664   -6082532.34347  -4689336.18246  23988635.5704   23988639.5204
     -1746.8264      -1361.1514
  23959846.4534   -7751743.41947  -5998192.46746  23959845.5744   23959846.0894
     -2590.9414      -2018.9184
  21061316.4354  -22394068.66948 -17404624.95947  21061316.2214   21061319.1574
      -247.9504       -193.2204
  20371963.1564  -27486666.70049 -21364929.39948  20371962.9164   20371964.3924
     -1892.3174      -1474.5494
  23240734.5104  -10909595.36247  -8461882.49446  23240734.4294   23240735.7264
      2999.4654       2337.2244
 06  6 26 13 34 30.0000000  0  8G29G 9G18G10G 2G 6G26G21
  21265784.2774  -17986866.59648 -13973020.85347  21265784.3874   21265786.2464
     -2551.5264      -1988.2104
  22860369.1714  -15062663.17647 -11729447.52547  22860369.3474   22860373.9304
      2987.1224       2327.6114
  23430338.2184  -10452352.32547  -8140711.81246  23430337.1464   23430339.7184
       982.2534        765.3774
  23998593.4694   -6030206.88947  -4648563.11346  23998592.5924   23998597.2864
     -1743.1064      -1358.2704
  23974655.6784   -7673912.32047  -5937544.83946  23974653.5294   23974655.3094
     -2599.0774      -2025.2634
  21062774.5974  -22386403.69448 -17398652.24947  21062774.4374   21062776.9154
      -264.5074       -206.1144
  20382810.1374  -27429663.11449 -21320511.02448  20382810.6674   20382812.0624
     -1909.1304      -1487.6344
  23223602.2404  -10999620.33447  -8532031.78146  23223602.0614   23223605.0844
      3000.7724       2338.2574
 06  6 26 13 35  0.0000000  0  8G29G 9G18G10G 2G 6G26G21
  21280377.1884  -17910180.38548 -13913265.38547  21280377.1784   21280378.7744
     -2561.3784      -1995.8774
  22843324.0294  -15152242.70747 -11799249.73847  22843323.9704   22843326.5014
      2984.6864       2325.7224
  23424732.5454  -10481809.06447  -8163665.10846  23424732.5114   23424735.5114
       981.2964        764.6274
  24008531.9564   -5977978.90147  -4607866.00346  24008530.4504   24008534.2654
     -1739.5994      -1355.5404
  23989518.6504   -7595816.13147  -5876690.74346  23989518.6984   23989518.8794
     -2607.6644      -2031.9474
  21064331.7054  -22378224.31948 -17392278.71647  21064331.0854   21064333.8194
      -281.3204       -219.1964
  20393755.9914  -27372143.66049 -21275690.67748  20393756.1344   20393757.4754
     -1925.9954      -1500.7674
  23206466.9014  -11089669.16547  -8602199.66046  23206466.1924   23206467.7214
      3001.8894       2339.1374
 06  6 26 13 35 30.0000000  0  8G29G 9G18G10G 2G 6G26G21
  21295027.5504  -17833190.40848 -13853273.21147  21295027.9994   21295029.3344
     -2570.8814      -2003.2964
  22826290.4184  -15241753.11247 -11868998.08747  22826290.2344   22826292.9534
      2983.1284       2324.5054
  23419136.4214  -10511218.96347  -8186581.90646  23419138.0084   23419137.5934
       979.7664        763.4604
  24018451.3824   -5925852.39547  -4567247.97246  24018451.0584   24018454.1744
     -1735.1494      -1352.0674
  24004430.1544   -7517460.19347  -5815634.24046  24004428.9794   24004428.8144
     -2615.5584      -2038.0944
  21065984.9064  -22369535.82448 -17385508.46247  21065984.9844   21065987.0334
      -297.5474       -231.8604
  20404798.6634  -27314115.54949 -21230473.97948  20404798.4124   20404799.8224
     -1942.1864      -1513.3924
  23189326.6254  -11179744.26447  -8672388.03646  23189326.1084   23189327.1184
      3003.5784       2340.4484
 06  6 26 13 36  0.0000000  0  8G29G 9G18G10G 2G 6G26G21
  21309736.5234  -17755894.52648 -13793042.66947  21309736.7024   21309738.7084
     -2581.2354      -2011.3434
  22809272.8194  -15331186.71447 -11938686.59647  22809272.0614   22809275.0624
      2980.2054       2322.2534
  23413549.3854  -10540577.82647  -8209458.93246  23413550.2014   23413552.2334
       978.2394        762.2794
  24028351.8534   -5873821.87247  -4526704.72646  24028352.6734   24028352.9784
     -1732.0144      -1349.6224
  24019387.4474   -7438840.46147  -5754372.08846  24019386.7884   24019387.1564
     -2624.0444      -2044.7034
  21067735.6574  -22360334.32048 -17378338.47047  21067735.8874   21067737.7314
      -314.8334       -245.3274
  20415938.0784  -27255576.64249 -21184859.25048  20415938.3154   20415939.4124
     -1959.3274      -1526.7414
  23172180.7054  -11269838.59947  -8742591.36646  23172181.5104   23172183.1204
      3003.9524       2340.7604
 06  6 26 13 36 30.0000000  0  8G29G 9G18G10G 2G 6G26G21
  21324501.8444  -17678300.51348 -13732579.81647  21324502.6854   21324504.0314
     -2591.0534      -2019.0084
  22792268.5724  -15420544.44247 -12008315.98347  22792266.7464   22792269.5354
      2977.6574       2320.2624
  23407971.2194  -10569891.50447  -8232300.74846  23407971.6104   23407973.6234
       977.1504        761.4294
  24038235.4134   -5821891.94847  -4486239.85946  24038233.8144   24038236.6024
     -1729.1664      -1347.3914
  24034399.4794   -7359962.15347  -5692908.53346  24034398.8724   24034401.2624
     -2632.9274      -2051.6254
  21069583.2254  -22350625.26248 -17370772.97747  21069583.1264   21069585.7784
      -331.8084       -258.5504
  20427172.2694  -27196534.37748 -21138852.29948  20427173.3594   20427174.6304
     -1975.9824      -1539.7244
  23155033.7364  -11359954.75047  -8812811.71246  23155033.0414   23155034.4814
      3004.5214       2341.1864
 06  6 26 13 37  0.0000000  0  8G29G 9G18G10G 2G 6G26G21
  21339325.3684  -17600409.25148 -13671885.33647  21339324.9354   21339326.0224
     -2600.3644      -2026.2534
  22775278.8304  -15509821.71247 -12077882.66747  22775279.2524   22775280.3014
      2975.2814       2318.4014
  23402401.2704  -10599159.41647  -8255106.89446  23402400.4164   23402403.2694
       975.5984        760.2154
  24048098.0784   -5770060.61347  -4445851.81946  24048096.4674   24048099.7574
     -1725.4284      -1344.4884
  24049458.6514   -7280824.53047  -5631242.92746  24049458.8034   24049458.7894
     -2641.3704      -2058.2134
  21071527.5404  -22340407.88148 -17362811.39747  21071527.5074   21071530.3044
      -348.1844       -271.3034
  20438503.2064  -27136989.80048 -21092453.93648  20438504.1274   20438505.8524
     -1992.3434      -1552.4694
  23137880.9494  -11450089.06647  -8883046.21446  23137879.9614   23137882.6084
      3005.5554       2341.9954
 06  6 26 13 37 30.0000000  0  8G29G 9G18G10G 2G 6G26G21
  21354203.5274  -17522220.98448 -13610959.43247  21354203.8904   21354205.0354
     -2610.6994      -2034.3214
  22758305.5104  -15599012.16147 -12147381.71247  22758305.1274   22758308.3024
      2972.1124       2315.9214
  23396841.5144  -10628379.80947  -8277876.00846  23396840.4204   23396842.8914
       973.3234        758.4284
  24057942.9354   -5718324.53047  -4405538.00246  24057939.4384   24057945.4964
     -1722.7384      -1342.3904
  24064568.4084   -7201425.89247  -5569373.88246  24064568.2844   24064567.0374
     -2650.2934      -2065.1614
  21073568.8034  -22329680.69448 -17354452.55747  21073569.6524   21073571.4044
      -365.6884       -284.9534
  20449930.4884  -27076943.24048 -21045664.42248  20449930.8574   20449932.4254
     -2009.2614      -1565.6694
  23120726.8424  -11540236.76347  -8953291.13246  23120726.7224   23120727.3214
      3005.3774       2341.8324
 06  6 26 13 38  0.0000000  0  8G29G 9G18G10G 2G 6G26G21
  21369136.9984  -17443744.01048 -13549808.54447  21369136.8994   21369139.3174
     -2621.5394      -2042.7494
  22741349.8024  -15688118.14547 -12216814.93347  22741350.2114   22741353.1564
      2967.9004       2312.6714
  23391289.2124  -10657559.06647  -8300613.08446  23391288.8374   23391289.6264
       971.1224        756.7134
  24067769.2514   -5666688.66547  -4365302.29246  24067766.9164   24067771.8444
     -1720.0724      -1340.3204
  24079726.5904   -7121771.76047  -5507305.76946  24079726.2034   24079726.8784
     -2660.2554      -2072.9204
  21075706.2854  -22318449.98548 -17345701.35847  21075705.8244   21075708.9114
      -383.4984       -298.8284
  20461450.6524  -27016402.71948 -20998489.99748  20461451.3294   20461453.0424
     -2026.8954      -1579.4034
  23103569.5664  -11630401.25047  -9023549.14546  23103567.9844   23103569.2064
      3005.0334       2341.5914
 06  6 26 13 38 30.0000000  0  8G29G 9G18G10G 2G 6G26G21
  21384125.6344  -17364978.66848 -13488432.96447  21384126.5424   21384127.0414
     -2630.3714      -2049.6204
  22724410.5804  -15777133.54747 -12286177.56547  22724410.4504   22724413.8184
      2965.4004       2310.7294
  23385744.7144  -10686696.06347  -8323317.21246  23385744.3714   23385745.5634
       970.5544        756.2644
  24077576.4864   -5615150.64347  -4325142.81546  24077576.6204   24077580.4714
     -1716.5124      -1337.5354
  24094932.4004   -7041861.06347  -5445037.76246  24094931.7354   24094933.4074
     -2667.9794      -2078.9514
  21077939.6084  -22306714.42448 -17336556.76547  21077940.0614   21077941.8784
      -399.7704       -311.4994
  20473065.1564  -26955368.98748 -20950931.25548  20473065.8004   20473067.2814
     -2042.7954      -1591.7844
  23086408.9204  -11720578.38447  -9093817.00846  23086409.8864   23086411.1824
      3006.0624       2342.3874
 06  6 26 13 39  0.0000000  0  8G29G 9G18G10G 2G 6G26G21
  21399169.5774  -17285925.41548 -13426833.03247  21399168.8434   21399170.9314
     -2640.8764      -2057.8214
  22707490.2194  -15866053.04947 -12355465.49247  22707489.3084   22707493.1634
      2961.1734       2307.4184
  23380207.9254  -10715788.93347  -8345986.96946  23380206.8284   23380209.9924
       968.2084        754.4504
  24087365.5704   -5563707.26647  -4285057.08146  24087365.1854   24087368.2694
     -1714.1134      -1335.6644
  24110186.9704   -6961692.00247  -5382568.39046  24110187.1464   24110188.1644
     -2677.8604      -2086.6484
  21080268.8814  -22294472.45648 -17327017.56347  21080268.6634   21080271.1034
      -417.5634       -325.3704
  20484772.8094  -26893841.99448 -20902988.13848  20484774.1584   20484775.3814
     -2060.0734      -1605.2554
  23069246.9034  -11810763.42647  -9164091.02246  23069246.2634   23069247.6944
      3005.3204       2341.8234
 06  6 26 13 39 30.0000000  0  8G29G 9G18G10G 2G 6G26G21
  21414265.9964  -17206588.66048 -13365012.19347  21414266.6034   21414268.2714
     -2648.6994      -2063.9254
  22690587.3094  -15954874.85547 -12424677.27647  22690588.1184   22690589.8704
      2959.9314       2306.4184
  23374679.3624  -10744840.68547  -8368624.67246  23374679.0084   23374681.7904
       967.9864        754.2774
  24097136.1304   -5512359.64647  -4245045.96446  24097135.4644   24097139.2764
     -1709.2934      -1331.9164
  24125491.6224   -6881267.28147  -5319899.81946  24125491.4164   24125492.4884
     -2684.5914      -2091.8894
  21082694.5724  -22281726.81048 -17317085.88447  21082694.7194   21082696.8924
      -432.7274       -337.2024
  20496575.1884  -26831826.53948 -20854664.41948  20496575.2904   20496576.5344
     -2074.7074      -1616.6564
  23052084.2104  -11900955.43247  -9234370.48246  23052083.4334   23052084.9744
      3006.9624       2343.0874
 06  6 26 13 40  0.0000000  0  8G29G 9G18G10G 2G 6G26G21
  21429416.7864  -17126971.59348 -13302972.92947  21429416.9374   21429418.3504
     -2658.4364      -2071.5114
  22673704.8104  -16043595.69347 -12493810.39147  22673704.3494   22673707.4934
      2955.6654       2303.1214
  23369160.0414  -10773852.53447  -8391231.29046  23369157.7314   23369161.1654
       966.7214        753.2774
  24106888.6374   -5461107.79147  -4205109.48046  24106888.7184   24106891.8424
     -1706.6994      -1329.8904
  24140844.9484   -6800588.22947  -5257033.08246  24140844.2594   24140846.0864
     -2693.5384      -2098.8724
  21085214.9564  -22268479.11348 -17306763.00247  21085214.9404   21085217.5204
      -449.9404       -350.6134
  20508469.2314  -26769325.82548 -20805962.56848  20508468.6264   20508469.7254
     -2091.3744      -1629.6514
  23034920.1044  -11991152.98247  -9304654.25046  23034920.5514   23034921.0324
      3006.6564       2342.8354
 06  6 26 13 40 30.0000000  0  8G29G 9G18G10G 2G 6G26G21
  21444619.8054  -17047080.30948 -13240719.99347  21444619.1404   21444621.6094
     -2667.9424      -2078.9064
  22656841.6664  -16132215.74847 -12562864.96847  22656840.9384   22656843.6774
      2951.8884       2300.1984
  23363644.5714  -10802828.58547  -8413810.01646  23363644.3414   23363647.2644
       964.9184        751.8894
  24116624.2624   -5409954.37347  -4165249.67846  24116624.8644   24116625.5184
     -1704.1124      -1327.8844
  24156245.4994   -6719658.36147  -5193970.89746  24156245.5874   24156246.3574
     -2702.2684      -2105.6624
  21087831.5054  -22254733.70548 -17296052.29947  21087830.5104   21087833.5054
      -466.8614       -363.7794
  20520453.2614  -26706346.04148 -20756887.40448  20520452.8064   20520454.5594
     -2107.6424      -1642.3174
  23017754.4414  -12081357.68147  -9374943.57846  23017755.5024   23017756.3274
      3006.4364       2342.6904
 06  6 26 13 41  0.0000000  0  8G29G 9G18G10G 2G 6G26G21
  21459874.8054  -16966915.32548 -13178253.78047  21459874.9214   21459876.3714
     -2676.4124      -2085.5104
  22639997.1994  -16220729.07847 -12631836.39747  22639998.1324   22639999.0994
      2949.1804       2298.0594
  23358138.4894  -10831767.54247  -8436359.82646  23358138.2164   23358139.3964
       964.6484        751.6674
  24126340.0224   -5358896.74347  -4125464.50146  24126338.5404   24126342.3094
     -1699.8544      -1324.5604
  24171693.6854   -6638476.31247  -5130712.20046  24171693.4084   24171695.9324
     -2709.6884      -2111.4464
  21090541.0694  -22240489.20448 -17284952.69447  21090541.0024   21090544.0474
      -482.6524       -376.0934
  20532528.3794  -26642887.57648 -20707439.25048  20532528.7084   20532530.1154
     -2122.8364      -1654.1604
  23000589.1394  -12171564.56047  -9445234.62346  23000588.7794   23000590.2614
      3007.2584       2343.3004
 06  6 26 13 41 30.0000000  0  8G29G 9G18G10G 2G 6G26G21
  21475181.5344  -16886479.36348 -13115576.40947  21475181.0014   21475182.7144
     -2686.2214      -2093.1654
  22623174.4914  -16309132.36547 -12700722.06747  22623173.9644   22623177.1444
      2944.3484       2294.2904
  23352637.5924  -10860670.49347  -8458881.59946  23352637.0484   23352639.2654
       962.3474        749.8804
  24136037.3594   -5307934.07947  -4085753.34446  24136036.8634   24136041.1314
     -1697.5584      -1322.7774
  24187190.8964   -6557043.11947  -5067257.86946  24187189.7994   24187190.0554
     -2719.1724      -2118.8354
  21093347.1094  -22225746.80248 -17273465.11447  21093346.8074   21093349.6354
      -500.1874       -389.7574
  20544694.5704  -26578953.36748 -20657620.38148  20544695.2024   20544696.6844
     -2139.5434      -1667.1924
  22983422.8254  -12261771.34647  -9515525.59146  22983423.7474   22983425.0214
      3006.0474       2342.3724
 06  6 26 13 42  0.0000000  0  8G29G 9G18G10G 2G 6G26G21
  21490538.7484  -16805773.56448 -13052688.78247  21490538.4614   21490540.2584
     -2694.4964      -2099.5954
  22606374.4614  -16397420.78647 -12769518.23147  22606374.5194   22606377.2014
      2941.2504       2291.8964
  23347145.1204  -10889537.11247  -8481375.03746  23347145.1654   23347146.4544
       961.8824        749.5244
  24145718.3574   -5257064.68547  -4046114.87846  24145717.2774   24145721.6224
     -1694.0884      -1320.0674
  24202734.1444   -6475357.90947  -5003607.10446  24202734.1114   24202734.5924
     -2726.9014      -2124.8584
  21096247.6614  -22210505.99548 -17261589.17747  21096247.1634   21096249.0414
      -516.0214       -402.0824
  20556951.6464  -26514544.59948 -20607431.72848  20556952.0574   20556953.2964
     -2154.5364      -1678.8534
  22966257.7194  -12351974.35447  -9585813.61146  22966257.6104   22966258.0484
      3006.9184       2343.0454
 06  6 26 13 42 30.0000000  0  8G29G 9G18G10G 2G 6G26G21
  21505947.6744  -16724800.14348 -12989592.60747  21505947.2864   21505948.6814
     -2704.4964      -2107.4014
  22589595.7814  -16485590.44247 -12838221.84947  22589595.9904   22589598.8694
      2936.0084       2287.8204
  23341658.3794  -10918366.89347  -8503839.77646  23341657.0294   23341661.3604
       959.5354        747.6974
  24155379.8384   -5206287.36147  -4006548.13746  24155379.4454   24155381.8244
     -1691.7184      -1318.2234
  24218326.1044   -6393420.80447  -4939760.05846  24218326.0474   24218326.5864
     -2736.3664      -2132.2214
  21099241.9514  -22194767.14848 -17249325.15047  21099242.0114   21099243.8784
      -533.9734       -416.0794
  20569297.2594  -26449663.53548 -20556875.04948  20569298.5904   20569299.6794
     -2171.3914      -1691.9964
  22949093.4384  -12442170.67447  -9656096.42146  22949093.4244   22949095.3534
      3005.6674       2342.0804
 06  6 26 13 43  0.0000000  0  8G29G 9G18G10G 2G 6G26G21
  21521405.3974  -16643568.18548 -12926294.98847  21521405.6804   21521406.8654
     -2711.5864      -2112.9494
  22572839.8284  -16573643.52147 -12906834.63747  22572840.1224   22572842.7664
      2933.4804       2285.8234
  23336178.9054  -10947167.38447  -8526281.70546  23336178.6864   23336179.3944
       959.8344        747.9194
  24165025.3564   -5155607.56647  -3967057.42646  24165023.5394   24165025.5264
     -1687.0744      -1314.6174
  24233962.7564   -6311239.04347  -4875722.38346  24233964.6074   24233965.5974
     -2743.2174      -2137.5724
  21102330.9234  -22178537.82448 -17236678.92847  21102330.2154   21102332.7454
      -548.6824       -427.5544
  20581732.0404  -26384319.46648 -20505957.58148  20581732.6634   20581734.6814
     -2185.4074      -1702.9294
  22931931.2514  -12532365.17247  -9726377.81746  22931928.4874   22931930.6494
      3006.8434       2343.0094
 06  6 26 13 43 30.0000000  0  8G29G 9G18G10G 2G 6G26G21
  21536912.9284  -16562075.78948 -12862794.43047  21536912.8314   21536914.4244
     -2720.1954      -2119.6264
  22556107.9344  -16661572.30647 -12975350.55547  22556108.3934   22556110.7014
      2929.4244       2282.6684
  23330704.3874  -10975934.65447  -8548697.74646  23330703.4854   23330704.8924
       958.9444        747.2144
  24174651.8734   -5105020.17847  -3927638.66246  24174650.9204   24174653.6604
     -1684.1654      -1312.3344
  24249651.9534   -6228809.16347  -4811491.41646  24249652.5294   24249651.0034
     -2751.1704      -2143.7644
  21105512.5054  -22161814.59448 -17223647.85047  21105513.3564   21105515.2974
      -565.1324       -440.3704
  20594256.0524  -26318510.74548 -20454678.05848  20594255.8094   20594257.3024
     -2200.6564      -1714.7924
  22914768.6124  -12622549.83247  -9796651.52946  22914768.6504   22914769.6794
      3006.5704       2342.7824
 06  6 26 13 44  0.0000000  0  8G29G 9G18G10G 2G 6G26G21
  21552469.6164  -16480327.06048 -12799094.12647  21552469.6294   21552471.0924
     -2729.0224      -2126.5224
  22539399.9484  -16749374.73947 -13043768.03747  22539399.4544   22539401.8374
      2924.6374       2278.9344
  23325234.7414  -11004671.10947  -8571089.76546  23325234.0464   23325236.6934
       957.3054        745.9314
  24184259.7794   -5054526.03647  -3888292.57146  24184259.3814   24184262.5474
     -1681.5884      -1310.3234
  24265384.4344   -6146132.97247  -4747068.43046  24265383.8814   24265384.8824
     -2759.8264      -2150.5054
  21108788.5344  -22144600.17748 -17210234.02147  21108789.1744   21108791.5184
      -581.9634       -453.4844
  20606865.8234  -26252241.44548 -20403039.63848  20606866.3354   20606867.5094
     -2216.6954      -1727.2994
  22897609.9724  -12712724.37847  -9866917.35946  22897609.8594   22897609.9974
      3005.6954       2342.1054
 06  6 26 13 44 30.0000000  0  9G29G 9G 7G18G10G 2G 6G26G21
  21568071.8924  -16398336.25548 -12735205.20147  21568071.6774   21568073.7844
     -2737.4374      -2133.0684
  22522714.5484  -16837058.68948 -13112093.18747  22522713.6004   22522715.3144
      2920.4864       2275.6754
  24744344.0584   -4588275.41046  -3568401.39046  24744344.2594   24744348.7554
      2382.9564       1856.8494
  23319771.0654  -11033389.34847  -8593467.59146  23319769.5664   23319771.3694
       956.7394        745.4864
  24193847.9334   -5004135.94147  -3849027.57446  24193847.4594   24193850.1484
     -1678.3544      -1307.8094
  24281159.5574   -6063223.12847  -4682463.43246  24281159.9214   24281162.8784
     -2767.8064      -2156.7324
  21112155.6184  -22126907.05948 -17196447.17547  21112155.7384   21112157.8234
      -598.0334       -465.9884
  20619561.9504  -26185526.04548 -20351053.61348  20619561.8834   20619563.5754
     -2231.6934      -1738.9884
  22880449.1804  -12802898.06647  -9937182.51146  22880448.0214   22880449.4304
      3005.6344       2342.0644
 06  6 26 13 45  0.0000000  0  9G29G 9G 7G18G10G 2G 6G26G21
  21583724.1894  -16316081.41148 -12671110.51847  21583724.6204   21583725.8994
     -2745.1924      -2139.1034
  22506055.8914  -16924596.36948 -13180304.34547  22506054.7804   22506058.3844
      2916.2434       2272.3874
  24730772.2004   -4659593.70246  -3623974.01846  24730773.9354   24730777.3714
      2372.5844       1848.7734
  23314313.2104  -11062065.50747  -8615812.62946  23314312.3274   23314315.5524
       956.1114        745.0214
  24203423.5084   -4953824.47947  -3809823.83746  24203420.5294   24203423.0674
     -1674.4674      -1304.7944
  24296986.9874   -5980055.38047  -4617657.53046  24296988.6894   24296987.7374
     -2775.6754      -2162.8534
  21115618.1234  -22108711.79748 -17182269.04547  21115618.2704   21115619.6624
      -613.9134       -478.3814
  20632346.6224  -26118342.55148 -20298702.84448  20632346.2794   20632347.7654
     -2246.1544      -1750.2464
  22863295.7534  -12893043.41247 -10007425.58746  22863295.5724   22863297.4044
      3005.3524       2341.8194
 06  6 26 13 45 30.0000000  0  9G29G 9G 7G18G10G 2G 6G26G21
  21599423.6884  -16233578.43748 -12606822.49147  21599423.7154   21599425.7504
     -2755.0964      -2146.8404
  22489424.1144  -17011997.10248 -13248408.80447  22489424.2984   22489426.3724
      2910.2274       2267.7094
  24717265.3294   -4730587.13946  -3679293.52246  24717264.7524   24717268.0044
      2360.3014       1839.1794
  23308861.5114  -11090713.50847  -8638135.72246  23308862.3204   23308863.2404
       953.4524        742.9414
  24212977.7724   -4903604.19847  -3770691.15246  24212978.9994   24212982.5524
     -1673.5284      -1304.0524
  24312858.8334   -5896644.09047  -4552661.72046  24312859.6194   24312860.6154
     -2785.2364      -2170.3154
  21119173.1124  -22090028.78848 -17167710.85647  21119173.5774   21119175.6694
      -631.6914       -492.2434
  20645216.6304  -26050707.10148 -20245999.88948  20645217.0774   20645218.4424
     -2262.8114      -1763.2404
  22846144.4124  -12983171.17447 -10077654.96146  22846145.0904   22846146.6154
      3003.2094       2340.1314
 06  6 26 13 46  0.0000000  0  9G29G 9G 7G18G10G 2G 6G26G21
  21615170.4374  -16150832.18148 -12542344.90947  21615169.7224   21615172.3374
     -2761.8334      -2152.0914
  22472818.3734  -17099259.43848 -13316405.42147  22472818.6154   22472821.3594
      2906.6384       2264.9074
  24703814.6214   -4801256.08846  -3734360.19645  24703814.1574   24703817.6714
      2350.7724       1831.7624
  23303414.3864  -11119336.39047  -8660439.24446  23303415.5614   23303417.3434
       954.0024        743.3704
  24222516.1744   -4853476.90247  -3731630.96746  24222516.2104   24222520.8454
     -1668.8394      -1300.3834
  24328778.2894   -5812992.08547  -4487478.42946  24328778.7504   24328781.1754
     -2791.7744      -2175.3964
  21122820.9314  -22070861.57448 -17152775.37347  21122820.7104   21122823.1714
      -646.5524       -503.8204
  20658173.2154  -25982625.01848 -20192948.92848  20658172.6924   20658173.9494
     -2276.5104      -1773.9134
  22828997.7274  -13073281.64647 -10147870.85346  22828996.9264   22828997.5074
      3003.8684       2340.6834
 06  6 26 13 46 30.0000000  0  9G29G 9G 7G18G10G 2G 6G26G21
  21630962.6354  -16067845.43948 -12477679.92447  21630962.1664   21630963.3054
     -2769.9264      -2158.3944
  22456240.4794  -17186380.11248 -13384291.64947  22456239.8854   22456242.6594
      2901.8834       2261.2024
  24690429.9354   -4871598.95646  -3789172.82145  24690430.1154   24690432.4274
      2339.5094       1822.9944
  23297973.0194  -11147935.26147  -8682724.06146  23297972.5504   23297974.3064
       952.9804        742.5904
  24232040.3284   -4803441.87147  -3692642.65946  24232040.2904   24232041.5744
     -1666.1714      -1298.3104
  24344743.8304   -5729100.48247  -4422108.40646  24344742.7594   24344744.1034
     -2800.4104      -2182.1324
  21126560.0464  -22051211.22948 -17137463.42447  21126560.0574   21126562.2494
      -662.9594       -516.5784
  20671212.7234  -25914099.21248 -20139552.20348  20671212.8044   20671214.3904
     -2291.3924      -1785.4944
  22811853.1624  -13163372.63047 -10218071.57146  22811853.6894   22811853.3644
      3002.6804       2339.7504
 06  6 26 13 47  0.0000000  0  9G29G 9G 7G18G10G 2G 6G26G21
  21646798.8864  -15984619.79748 -12412828.78747  21646799.3904   21646799.9704
     -2778.1124      -2164.7644
  22439689.9004  -17273354.67048 -13452064.01847  22439689.6714   22439691.9104
      2896.7284       2257.2054
  24677106.6084   -4941612.81546  -3843729.04546  24677106.3454   24677110.2974
      2328.3204       1814.2644
  23292535.7874  -11176509.74047  -8704989.87846  23292534.9024   23292537.1914
       952.0324        741.8254
  24241544.8514   -4753497.32047  -3653724.82946  24241542.5664   24241545.7044
     -1663.0724      -1295.9054
  24360753.1304   -5644969.07547  -4356551.54846  24360751.5774   24360752.3754
     -2808.3854      -2188.3534
  21130391.0914  -22031078.79348 -17121775.83147  21130391.1064   21130393.4554
      -679.0564       -529.1304
  20684336.3214  -25845131.45648 -20085811.10548  20684336.9354   20684338.5324
     -2306.1464      -1797.0004
  22794713.9164  -13253440.45447 -10288254.24246  22794713.7574   22794716.3754
      3001.9754       2339.2074
 06  6 26 13 47 30.0000000  0  9G29G 9G 7G18G10G 2G 6G26G21
  21662681.6034  -15901156.60848 -12347792.55247  21662681.5784   21662683.0854
     -2785.0274      -2170.1434
  22423167.4714  -17360178.02148 -13519718.56347  22423166.4884   22423169.2844
      2892.6684       2253.9994
  24663844.8374   -5011293.95346  -3898025.96946  24663845.5514   24663850.9934
      2318.1824       1806.3774
  23287102.7534  -11205059.12747  -8727236.13946  23287102.4044   23287104.9304
       952.2584        742.0404
  24251031.8044   -4703641.00447  -3614875.73446  24251030.4374   24251030.7054
     -1659.2054      -1292.8934
  24376807.5464   -5560597.16147  -4290807.22346  24376807.8914   24376808.5794
     -2815.3324      -2193.7584
  21134314.2204  -22010462.70148 -17105711.35647  21134313.9774   21134316.9844
      -694.2704       -540.9684
  20697545.1444  -25775723.08148 -20031726.67348  20697544.6664   20697546.0274
     -2319.8854      -1807.7004
  22777579.9434  -13343481.22247 -10358415.83246  22777579.8664   22777579.7654
      3001.7144       2338.9814
 06  6 26 13 48  0.0000000  0  9G29G 9G 7G18G10G 2G 6G26G21
  21678609.0524  -15817459.13048 -12282573.75447  21678609.1554   21678610.3954
     -2793.5794      -2176.8114
  22406674.1664  -17446847.52148 -13587253.22747  22406674.8254   22406676.6534
      2886.6094       2249.3254
  24650649.4474   -5080641.73546  -3952063.14246  24650649.7984   24650652.7994
      2305.8354       1796.7584
  23281673.6604  -11233584.89347  -8749463.98546  23281673.6564   23281676.5264
       950.7694        740.8624
  24260499.5874   -4653872.87146  -3576095.32146  24260500.6804   24260504.8124
     -1657.5154      -1291.5754
  24392908.9064   -5475986.29447  -4224876.72146  24392909.2524   24392910.6144
     -2824.3384      -2200.7734
  21138329.2854  -21989365.78348 -17089272.21447  21138329.0434   21138330.9044
      -710.9894       -554.0054
  20710835.7644  -25705877.80548 -19977301.79448  20710836.3084   20710837.1914
     -2335.2584      -1819.6694
  22760450.4394  -13433493.31647 -10428555.07846  22760450.8974   22760452.1944
      2999.9184       2337.6244
 06  6 26 13 48 30.0000000  0  9G29G 9G 7G18G10G 2G 6G26G21
  21694580.4114  -15733532.50348 -12217176.39947  21694580.1324   21694581.2784
     -2801.3594      -2182.8844
  22390211.7444  -17533361.65048 -13654666.80847  22390210.8924   22390214.3354
      2881.1574       2245.0494
  24637516.5424   -5149656.24146  -4005840.67846  24637516.9084   24637517.6494
      2294.9234       1788.2484
  23276249.6214  -11262090.53147  -8771676.14646  23276250.3774   23276249.7894
       949.9244        740.2014
  24269952.7674   -4604194.90947  -3537385.26246  24269952.6114   24269959.9334
     -1654.5804      -1289.2874
  24409055.5884   -5391139.85447  -4158762.70646  24409054.4284   24409054.9374
     -2832.2424      -2206.9414
  21142434.3004  -21967791.76448 -17072461.30047  21142434.4444   21142436.7514
      -727.0814       -566.5514
  20724208.9514  -25635600.98948 -19922540.65648  20724209.7794   20724210.8964
     -2349.7364      -1830.9464
  22743328.8724  -13523476.76847 -10498672.00847  22743326.9634   22743328.4124
      2999.0004       2336.8774
 06  6 26 13 49  0.0000000  0  9G29G 9G 7G18G10G 2G 6G26G21
  21710593.6624  -15649379.65048 -12151602.76447  21710593.6994   21710595.1634
     -2808.2214      -2188.2324
  22373779.3414  -17619717.43948 -13721957.02847  22373777.9514   22373780.2404
      2876.4024       2241.3494
  24624448.8954   -5218336.17446  -4059357.53545  24624447.1104   24624451.6444
      2284.2924       1779.9494
  23270829.3764  -11290576.89147  -8793873.28646  23270828.6024   23270830.3274
       949.6144        739.9504
  24279391.8134   -4554606.53647  -3498745.02646  24279389.8974   24279394.0434
     -1651.0434      -1286.5294
  24425245.5844   -5306059.04747  -4092466.03446  24425244.1124   24425245.9894
     -2839.6244      -2212.6944
  21146630.3434  -21945742.01548 -17055279.68647  21146630.2454   21146632.3294
      -742.3654       -578.4544
  20737663.2494  -25564895.76048 -19867445.69248  20737663.9614   20737665.5894
     -2363.3404      -1841.5684
  22726209.8604  -13613428.98047 -10568764.59847  22726210.8054   22726210.7574
      2998.4424       2336.4194
 06  6 26 13 49 30.0000000  0  9G29G 9G 7G18G10G 2G 6G26G21
  21726649.7134  -15565002.09948 -12085854.03347  21726650.5464   21726651.4794
     -2815.7944      -2194.1204
  22357377.7564  -17705909.81448 -13789119.90047  22357376.9604   22357379.5474
      2870.8124       2237.0244
  24611442.0514   -5286678.57846  -4112611.30746  24611440.7004   24611446.2784
      2273.1534       1771.2864
  23265412.2864  -11319043.59247  -8816055.11946  23265412.4844   23265413.7894
       949.2774        739.6984
  24288812.9054   -4505105.66947  -3460172.94246  24288810.4614   24288813.0964
     -1647.9534      -1284.1204
  24441481.5234   -5220743.54347  -4025986.48946  24441479.9824   24441480.2784
     -2847.0584      -2218.4854
  21150916.9154  -21923216.97948 -17037727.72147  21150916.6744   21150918.5444
      -758.1524       -590.7674
  20751199.7174  -25493763.80848 -19812018.21248  20751199.9704   20751201.5464
     -2377.5944      -1852.6724
  22709099.6084  -13703346.93647 -10638830.46747  22709100.9344   22709099.7554
      2997.0464       2335.3854
 06  6 26 13 50  0.0000000  0  9G29G 9G 7G18G10G 2G 6G26G21
  21742748.7734  -15480403.36648 -12019932.96247  21742748.6164   21742749.7294
     -2823.7094      -2200.2914
  22341006.5174  -17791936.42048 -13856153.59747  22341005.7034   22341008.8384
      2864.7024       2232.2404
  24598501.7764   -5354682.37846  -4165601.22946  24598500.2534   24598506.0814
      2260.8554       1761.6864
  23259998.2154  -11347492.32147  -8838222.94446  23259997.7064   23259999.7294
       947.9344        738.6444
  24298214.2894   -4455692.49047  -3421669.17246  24298213.3804   24298217.2854
     -1645.7704      -1282.4194
  24457761.2774   -5135195.13447  -3959325.43946  24457761.2484   24457761.0874
     -2855.6844      -2225.2154
  21155292.5974  -21900219.00748 -17019807.22847  21155292.8904   21155295.7014
      -774.5244       -603.5274
  20764816.6884  -25422209.11648 -19756261.32948  20764816.4664   20764817.9214
     -2392.2584      -1864.1004
  22691995.4634  -13793228.58847 -10708868.06447  22691994.6964   22691996.6584
      2995.2424       2333.9694
 06  6 26 13 50 30.0000000  0  9G29G 9G 7G18G10G 2G 6G26G21
  21758889.2784  -15395583.89248 -11953839.88547  21758889.2344   21758889.9804
     -2830.6844      -2205.7094
  22324668.9274  -17877791.19448 -13923053.41047  22324668.6214   22324671.8674
      2859.3144       2228.0314
  24585626.2324   -5422343.54346  -4218324.23046  24585626.5364   24585628.3504
      2250.2594       1753.4564
  23254587.8964  -11375921.70147  -8860375.68946  23254589.3314   23254588.7424
       947.6134        738.3944
  24307598.7464   -4406364.24647  -3383231.57546  24307597.7454   24307600.2494
     -1642.3354      -1279.7264
  24474084.5494   -5049412.68947  -3892482.06546  24474082.9744   24474083.8564
     -2863.0994      -2230.9744
  21159760.1854  -21876746.59148 -17001517.04047  21159760.3134   21159761.6274
      -789.9214       -615.5174
  20778512.9344  -25350232.49148 -19700175.66748  20778513.1364   20778514.9794
     -2405.8924      -1874.7214
  22674899.8984  -13883069.57447 -10778873.97447  22674898.7804   22674901.0194
      2994.4634       2333.3214
 06  6 26 13 51  0.0000000  0  9G29G 9G 7G18G10G 2G 6G26G21
  21775070.5324  -15310551.50148 -11887580.89347  21775070.2104   21775071.8834
     -2837.8024      -2211.2774
  22308363.5524  -17963475.56648 -13989820.42947  22308363.6154   22308366.0074
      2853.4854       2223.4944
  24572814.9724   -5489665.25246  -4270782.71245  24572814.0094   24572819.1194
      2238.5964       1744.3564
  23249180.8954  -11404337.03847  -8882517.49546  23249181.4374   23249184.1184
       947.0274        737.9544
  24316969.2474   -4357124.77646  -3344863.13646  24316969.5924   24316970.3934
     -1639.6184      -1277.6334
  24490452.5174   -4963402.23247  -3825461.00646  24490450.5864   24490451.4104
     -2870.8274      -2237.0104
  21164315.1344  -21852806.86648 -16982862.70947  21164315.0364   21164317.6264
      -805.6504       -627.7734
  20792288.4674  -25277841.72248 -19643767.29348  20792288.5674   20792290.0884
     -2419.6684      -1885.4504
  22657810.3074  -13972871.95747 -10848849.80747  22657810.8364   22657810.5854
      2992.9394       2332.1534
 06  6 26 13 51 30.0000000  0  9G29G 9G 7G18G10G 2G 6G26G21
  21791292.7004  -15225302.29048 -11821152.95147  21791293.2614   21791294.7124
     -2845.3744      -2217.1854
  22292092.1574  -18048979.84748 -14056447.11847  22292092.1644   22292094.9794
      2847.1134       2218.5144
  24560069.6774   -5556639.61346  -4322970.52346  24560068.5124   24560076.7994
      2226.4344       1734.8694
  23243777.2164  -11432733.97347  -8904644.95346  23243777.7084   23243780.1114
       946.2844        737.3654
  24326323.9144   -4307967.34047  -3306558.67646  24326324.0644   24326328.3934
     -1637.4184      -1275.9224
  24506861.1674   -4877158.11046  -3758257.79546  24506861.9804   24506863.2244
     -2879.1274      -2243.4794
  21168961.0884  -21828394.49048 -16963840.08347  21168960.4814   21168963.3584
      -821.6064       -640.2234
  20806143.8734  -25205033.53348 -19587033.66048  20806143.6664   20806145.3874
     -2433.9384      -1896.5784
  22640731.2284  -14062627.68547 -10918789.27347  22640730.2444   22640731.1904
      2991.0974       2330.7354
 06  6 26 13 52  0.0000000  0  9G29G 9G 7G18G10G 2G 6G26G21
  21807554.5944  -15139843.52748 -11754561.73247  21807554.4474   21807555.9464
     -2852.2154      -2222.4934
  22275855.8044  -18134305.01348 -14122934.25147  22275856.3924   22275858.2764
      2840.8344       2213.6454
  24547390.7254   -5623269.12946  -4374889.58346  24547390.0404   24547395.4244
      2214.7534       1725.7834
  23238376.7724  -11461116.84347  -8926761.47046  23238375.9794   23238377.1964
       945.5584        736.8014
  24335664.7614   -4258895.64647  -3268321.04046  24335663.1554   24335666.6594
     -1634.4404      -1273.5844
  24523317.6654   -4790685.58847  -3690876.72046  24523318.0774   24523320.8904
     -2886.6964      -2249.3684
  21173695.1044  -21803515.66348 -16944453.99547  21173695.4294   21173698.1104
      -837.3544       -652.4754
  20820075.9644  -25131815.14948 -19529980.39948  20820076.6484   20820078.2914
     -2447.7024      -1907.2894
  22623658.8044  -14152338.33847 -10988693.63247  22623658.8454   22623659.8624
      2989.1814       2329.2374
 06  6 26 13 52 30.0000000  0  9G29G 9G 7G18G10G 2G 6G26G21
  21823855.6774  -15054184.32048 -11687814.31847  21823856.0984   21823857.4344
     -2858.1484      -2227.1204
  22259653.3674  -18219453.64548 -14189283.80347  22259652.2404   22259654.9944
      2835.6024       2209.5634
  24534776.6034   -5689558.54446  -4426543.63946  24534776.8334   24534781.3624
      2204.2564       1717.6064
  23232976.4384  -11489493.09647  -8948872.81946  23232976.2764   23232976.7134
       946.2584        737.3604
  24344984.4344   -4209915.36247  -3230154.61546  24344983.8034   24344986.8894
     -1630.8764      -1270.8064
  24539814.0424   -4703992.69847  -3623323.88646  24539815.2084   24539816.6884
     -2893.1454      -2254.3934
  21178516.0154  -21778178.58648 -16924710.82947  21178516.6554   21178518.8834
      -851.8434       -663.7654
  20834085.4594  -25058196.29048 -19472615.07248  20834086.0824   20834087.3924
     -2460.2624      -1917.0904
  22606596.1294  -14242007.58047 -11058565.71747  22606595.3274   22606596.9564
      2988.4434       2328.6314
 06  6 26 13 53  0.0000000  0  9G29G 9G 7G18G10G 2G 6G26G21
  21840196.6604  -14968313.34348 -11620901.88847  21840196.5744   21840198.2354
     -2866.5084      -2233.6544
  22243486.3914  -18304408.19648 -14255482.13547  22243486.1184   22243488.2404
      2827.8924       2203.5414
  24522230.5874   -5755492.28246  -4477920.55646  24522228.8454   24522231.7634
      2191.2494       1707.4594
  23227581.4794  -11517849.64347  -8970968.80246  23227580.7334   23227582.7414
       944.2884        735.7804
  24354290.3554   -4161011.43347  -3192047.67046  24354289.8574   24354293.1744
     -1629.4754      -1269.7274
  24556357.0724   -4617066.16547  -3555588.98246  24556356.1924   24556356.9144
     -2902.1254      -2261.3964
  21183427.7424  -21752370.34348 -16904600.51347  21183427.3024   21183429.6994
      -868.6684       -676.8814
  20848173.2584  -24984165.99348 -19414929.14648  20848173.3184   20848174.9184
     -2475.1274      -1928.6814
  22589542.9554  -14331619.50247 -11128393.14247  22589541.8134   22589544.3254
      2985.5974       2326.4424
 06  6 26 13 53 30.0000000  0  9G29G 9G 7G18G10G 2G 6G26G21
  21856574.9754  -14882244.20348 -11553835.04847  21856574.4774   21856576.6434
     -2872.8334      -2238.5604
  22227355.4514  -18389176.09648 -14321535.02247  22227355.4424   22227358.2284
      2821.8694       2198.8534
  24509747.8774   -5821079.61346  -4529027.54345  24509749.4614   24509750.7084
      2180.1724       1698.8324
  23222185.5414  -11546198.39047  -8993058.71646  23222184.9304   23222187.3974
       944.0014        735.5724
  24363579.0584   -4112194.31347  -3154008.37946  24363578.2694   24363581.6074
     -1626.2864      -1267.2384
  24572939.3674   -4529917.95447  -3487681.36346  24572940.6764   24572942.1204
     -2909.5874      -2267.2044
  21188425.9664  -21726103.93748 -16884133.19947  21188425.9794   21188428.7064
      -883.9174       -688.7524
  20862336.5864  -24909738.16348 -19356933.44748  20862336.1994   20862337.7134
     -2488.2114      -1938.8674
  22572499.4004  -14421182.37147 -11198182.35847  22572498.1134   22572499.4284
      2983.9684       2325.1794
 06  6 26 13 54  0.0000000  0  9G29G 9G 7G18G10G 2G 6G26G21
  21872991.2784  -14795974.38348 -11486611.83647  21872991.2324   21872993.1194
     -2878.9754      -2243.3544
  22211261.6754  -18473748.79748 -14387435.81347  22211262.2794   22211263.6114
      2815.6344       2194.0054
  24497335.5694   -5886313.41846  -4579859.05746  24497336.4044   24497338.7914
      2168.1584       1689.4694
  23216793.5974  -11574534.52847  -9015138.80346  23216793.6004   23216794.9054
       944.0284        735.6424
  24372852.9674   -4063457.97846  -3116032.04146  24372850.6754   24372856.1414
     -1623.1744      -1264.8194
  24589568.7234   -4442543.81646  -3419597.68746  24589567.4574   24589569.7964
     -2915.7894      -2272.0404
  21193512.4094  -21699375.22648 -16863305.65047  21193512.3074   21193514.5384
      -898.7884       -700.3604
  20876575.3104  -24834910.60348 -19298626.27548  20876575.6274   20876577.5734
     -2501.0904      -1948.8984
  22555467.3814  -14510688.40147 -11267927.27247  22555467.2274   22555468.1474
      2982.4804       2324.0274
 06  6 26 13 54 30.0000000  0 10G29G 9G 7G18G10G 2G 6G15G26G21
  21889442.4784  -14709521.23348 -11419245.77347  21889442.6764   21889444.5484
     -2884.5694      -2247.7084
  22195202.8574  -18558137.70648 -14453193.37647  22195203.4644   22195205.5194
      2810.0624       2189.6544
  24484986.8964   -5951207.08546  -4630425.52546  24484986.5284   24484989.9804
      2157.7464       1681.3644
  23211401.0484  -11602873.91447  -9037221.41646  23211400.3254   23211402.4714
       945.1324        736.4704
  24382111.8904   -4014816.66246  -3078129.73546  24382108.7904   24382111.7614
     -1619.5974      -1262.0274
  24606234.5644   -4354959.73747  -3351350.42446  24606234.2814   24606235.0414
     -2922.6194      -2277.3594
  21198683.2484  -21672201.20048 -16842131.09647  21198683.7534   21198686.0954
      -912.9274       -711.3804
  24436188.7384   -4835255.38046  -3726936.33145  24436186.9334   24436191.5204
      3250.5424       2532.9064
  20890887.6594  -24759701.09948 -19240021.48748  20890887.6044   20890888.7724
     -2513.0054      -1958.1794
  22538443.2544  -14600150.13247 -11337637.66647  22538443.7604   22538443.5014
      2981.7074       2323.4114
 06  6 26 13 55  0.0000000  0 10G29G 9G 7G18G10G 2G 6G15G26G21
  21905933.2444  -14622863.36248 -11351720.18847  21905933.1754   21905934.6444
     -2891.6104      -2253.2014
  22179184.6814  -18642314.03548 -14518785.29947  22179184.9694   22179187.2794
      2802.7204       2183.9144
  24472706.8024   -6015734.34146  -4680706.45946  24472706.5984   24472711.6934
      2144.8174       1671.2954
  23206012.3634  -11631192.87647  -9059288.12246  23206012.4044   23206012.6934
       944.0214        735.6284
  24391353.9034   -3966245.11147  -3040281.79346  24391352.6144   24391354.6754
     -1617.7084      -1260.5494
  24622946.8704   -4267142.53347  -3282921.50846  24622945.2814   24622945.3894
     -2930.7034      -2283.6574
  21203943.5714  -21644558.52148 -16820591.35247  21203943.3904   21203946.4244
      -928.8544       -723.7694
  24417625.5774   -4932796.24646  -3802942.08445  24417624.7134   24417629.5734
      3252.6894       2534.5624
  20905275.9184  -24684088.46048 -19181102.56348  20905276.5624   20905277.9334
     -2526.5864      -1968.7744
  22521432.4164  -14689540.12147 -11407292.16447  22521431.5754   22521433.2034
      2978.6074       2320.9964
 06  6 26 13 55 30.0000000  0 10G29G 9G 7G18G10G 2G 6G15G26G21
  21922459.9884  -14536015.38748 -11284046.45547  21922459.5944   21922461.9484
     -2897.6284      -2257.8894
  22163205.5584  -18726287.21848 -14584218.93347  22163205.4174   22163207.6614
      2795.9994       2178.6774
  24460495.9394   -6079905.79846  -4730710.12746  24460493.3414   24460499.3014
      2133.5214       1662.4944
  23200624.2884  -11659504.28147  -9081348.92246  23200624.4094   23200625.3064
       943.9304        735.5514
  24400580.9644   -3917754.49747  -3002496.91846  24400580.7334   24400583.8164
     -1614.8154      -1258.2934
  24639698.2924   -4179105.15246  -3214321.02946  24639696.9624   24639696.7184
     -2938.3034      -2289.5844
  21209290.2104  -21616461.06948 -16798697.25447  21209290.0114   21209292.5934
      -943.8404       -735.4484
  24399044.8274   -5030434.69146  -3879023.89146  24399047.3574   24399051.3294
      3256.3404       2537.4054
  20919738.5744  -24608087.68748 -19121881.19748  20919738.6844   20919740.2854
     -2539.4694      -1978.8084
  22504434.5514  -14778868.34947 -11476898.53947  22504434.0714   22504435.2934
      2976.8744       2319.6424
 06  6 26 13 56  0.0000000  0 10G29G 9G 7G18G10G 2G 6G15G26G21
  21939021.6684  -14448981.40548 -11216227.79947  21939021.8214   21939023.2744
     -2903.8264      -2262.7034
  22147264.8524  -18810055.21348 -14649492.66747  22147264.8244   22147268.3634
      2789.0564       2173.2834
  24448351.7204   -6143721.44846  -4780436.57046  24448352.1684   24448355.0194
      2121.7854       1653.3454
  23195238.4054  -11687810.64247  -9103405.80146  23195237.7564   23195239.2924
       943.9334        735.5554
  24409792.1754   -3869345.56147  -2964775.71046  24409792.5124   24409795.3404
     -1611.9134      -1256.0414
  24656492.4214   -4090850.21246  -3145550.99746  24656490.4874   24656493.0874
     -2944.9584      -2294.7584
  21214722.6774  -21587912.10648 -16776451.31547  21214723.0864   21214725.4054
      -958.5954       -746.9454
  24380446.9534   -5128170.65846  -3955181.76045  24380447.6434   24380449.5904
      3260.1234       2540.3374
  20934273.9334  -24531703.40148 -19062360.98048  20934274.4104   20934275.9124
     -2552.1744      -1988.7044
  22487447.9624  -14868133.90647 -11546456.08947  22487448.1844   22487447.8594
      2974.8314       2318.0614
 06  6 26 13 56 30.0000000  0 10G29G 9G 7G18G10G 2G 6G15G26G21
  21955619.4334  -14361761.80948 -11148264.50547  21955619.3084   21955620.8364
     -2910.0414      -2267.5694
  22131364.5074  -18893611.70848 -14714601.61847  22131364.6554   22131366.4214
      2781.8764       2167.6864
  24436278.1574   -6207177.28346  -4829882.68046  24436276.2914   24436280.7514
      2109.0994       1643.4494
  23189851.6544  -11716110.08547  -9125457.30246  23189851.5274   23189854.8494
       943.4054        735.0824
  24418986.8064   -3821015.41447  -2927115.89346  24418988.0104   24418992.3644
     -1609.2664      -1253.9834
  24673329.6584   -4002376.67646  -3076610.64446  24673329.1134   24673329.8124
     -2952.5274      -2300.6734
  21220242.2424  -21558911.07848 -16753853.12147  21220241.5564   21220244.9604
      -973.9184       -758.9294
  24361831.3564   -5226000.06546  -4031412.41646  24361831.5814   24361835.5014
      3262.8234       2542.4484
  20948881.7104  -24454936.37148 -19002542.52647  20948881.9824   20948884.2164
     -2564.9884      -1998.6934
  22470473.2504  -14957331.40247 -11615960.59547  22470473.5204   22470474.5064
      2972.3444       2316.0984
 06  6 26 13 57  0.0000000  0 10G29G 9G 7G18G10G 2G 6G15G26G21
  21972250.6124  -14274362.37848 -11080161.07447  21972250.7774   21972252.1674
     -2916.8094      -2272.8414
  22115504.5434  -18976956.51648 -14779545.59947  22115504.4424   22115506.6624
      2774.0024       2161.5704
  24424269.4114   -6270274.79046  -4879049.51546  24424267.7114   24424272.6154
      2096.7944       1633.8604
  23184469.0524  -11744406.64747  -9147506.55646  23184467.8854   23184469.5544
       942.6864        734.5724
  24428169.3844   -3772766.41747  -2889519.32846  24428168.7424   24428173.9294
     -1607.3704      -1252.4874
  24690204.7754   -3913688.22147  -3007502.83546  24690203.8724   24690205.3574
     -2960.9304      -2307.2114
  21225845.9794  -21529462.46348 -16730906.16147  21225845.6654   21225847.8804
      -989.5484       -771.0954
  24343196.3294   -5323924.20146  -4107716.83446  24343196.0724   24343199.0904
      3264.7844       2543.9684
  20963562.2654  -24377792.79448 -18942430.66547  20963562.1274   20963563.7194
     -2578.2144      -2009.0074
  22453512.1384  -15046461.83447 -11685412.84247  22453512.9044   22453513.6464
      2969.3424       2313.7674
 06  6 26 13 57 30.0000000  0  9G29G 9G 7G18G10G 6G15G26G21
  21988915.9584  -14186785.21748 -11011919.16047  21988915.8194   21988918.1084
     -2922.3094      -2277.1044
  22099685.4334  -19060085.65048 -14844321.53047  22099685.6064   22099687.4924
      2767.2534       2156.2904
  24412330.2274   -6333011.86746  -4927935.46946  24412330.1414   24412336.4484
      2085.6174       1625.1684
  23179083.1624  -11772700.61047  -9169553.76146  23179083.3034   23179085.7614
       943.0234        734.8464
  24437338.1354   -3724596.87447  -2851984.66046  24437337.4374   24437340.2724
     -1604.3584      -1250.1414
  21231534.0704  -21499568.14548 -16707611.90447  21231534.6334   21231536.9684
     -1003.8494       -782.2144
  24324545.5594   -5421940.66546  -4184093.22946  24324542.9824   24324546.3114
      3268.8044       2547.1184
  20978313.7444  -24300275.18448 -18882027.34947  20978313.7134   20978315.3354
     -2590.1064      -2018.2614
  22436565.6634  -15135522.17547 -11754810.47847  22436565.4864   22436566.2494
      2967.3624       2312.2354
 06  6 26 13 58  0.0000000  0  9G29G 9G 7G18G10G 6G15G26G21
  22005615.9204  -14099028.29848 -10943537.17547  22005616.1534   22005617.4574
     -2928.6654      -2282.0724
  22083909.9434  -19142990.57248 -14908922.75247  22083909.4624   22083911.6174
      2759.2504       2150.0694
  24400463.0234   -6395382.26546  -4976535.75146  24400463.5864   24400467.1384
      2072.7774       1615.1374
  23173700.5064  -11800988.07447  -9191595.91746  23173698.9004   23173701.8854
       942.4304        734.3524
  24446489.2364   -3676501.39347  -2814507.66446  24446488.7944   24446490.8804
     -1602.4204      -1248.6474
  21237308.8514  -21469224.65548 -16683967.63847  21237308.5954   21237311.2714
     -1019.3544       -794.2884
  24305877.6174   -5520042.77146  -4260536.44346  24305873.7124   24305881.5974
      3270.9544       2548.7984
  20993136.0874  -24222381.87548 -18821331.28547  20993136.0184   20993137.5244
     -2602.9974      -2028.3094
  22419632.7884  -15224504.43847 -11824147.27447  22419631.8014   22419632.8404
      2964.2304       2309.7964
 06  6 26 13 58 30.0000000  0  9G29G 9G 7G18G10G 6G15G26G21
  22022347.6184  -14011100.67348 -10875022.16447  22022348.1484   22022349.6954
     -2934.0794      -2286.2954
  22068175.2544  -19225674.43548 -14973351.72147  22068175.1104   22068177.6094
      2751.9014       2144.3344
  24388662.4594   -6457390.77546  -5024854.05746  24388662.1594   24388668.6254
      2060.6774       1605.7134
  23168318.0484  -11829276.32647  -9213638.68546  23168317.8524   23168317.6174
       942.4264        734.3614
  24455626.1074   -3628485.80547  -2777092.93946  24455624.9174   24455629.0624
     -1599.8274      -1246.6244
  21243166.8534  -21438440.00548 -16659979.61247  21243166.7664   21243168.9934
     -1033.8094       -805.5594
  24287189.1114   -5618235.51846  -4337050.15546  24287190.4954   24287195.3744
      3274.1414       2551.2704
  21008028.0364  -24144122.60448 -18760350.05147  21008028.2174   21008029.7954
     -2615.0674      -2037.7114
  22402712.9494  -15313413.40047 -11893426.96047  22402713.3194   22402714.7744
      2962.1114       2308.1344
 06  6 26 13 59  0.0000000  0  9G29G 9G 7G18G10G 6G15G26G21
  22039112.2854  -13923002.05948 -10806373.92547  22039112.7794   22039114.5154
     -2940.3374      -2291.1634
  22052484.0744  -19308130.62348 -15037603.27447  22052484.1134   22052486.7664
      2744.0674       2138.2514
  24376931.6254   -6519033.24346  -5072887.11946  24376930.8964   24376936.9244
      2048.2054       1596.0174
  23162934.1534  -11857563.17647  -9235680.36146  23162933.7864   23162936.8254
       942.1554        734.1244
  24464749.1434   -3580546.38747  -2739737.55846  24464747.1974   24464752.4884
     -1597.4984      -1244.8084
  21249109.0574  -21407213.50448 -16635647.29347  21249109.4874   21249111.5064
     -1049.0954       -817.4874
  24268489.0804   -5716513.96746  -4413630.68646  24268486.7014   24268491.3344
      3276.3824       2553.0224
  21022990.2634  -24065497.35548 -18699083.63747  21022990.4954   21022991.8394
     -2627.6194      -2047.4974
  22385810.1424  -15402243.10947 -11962644.87947  22385809.3504   22385810.8624
      2959.0954       2305.7874
